M I D A S
Marine Information and Data Acquisition System
Tripno 2103 of the Zeeleeuw from 2011-05-19 07:49:11 to 2011-05-19 13:01:09
Back to CruiseResearch ActivitiesStationsMapUnderway DataData graphs

EquipmentUnitsComment
TimeDGPSUTC
LatitudeDGPSDM.mWGS84
LongitudeDGPSDM.mWGS84
TemperatureSBE03/SBE38deg celciusITS90
ConductivitySBE21S/mITS90
SalinitySBE21 Practical Salinity Units
ChlorophylAChelsea fluorimeterg/lCalibrated in Aceton
Missing or incorrect values are displayed as -999
Sea surface data collected by the RV Zeeleeuw from 2011-05-19 07:50:55 to 2011-05-19 13:13:59
                                                                                    Next 1000 lines
Time Latitude Longitude Temperature Conductivity Salinity ChlorophylA
2011-05-19 07:51:05 51°13.616 2°56.067 18.4347 0.06533 0.366712 -3.020363
2011-05-19 07:51:10 51°13.616 2°56.064 18.4169 0.065432 0.367308 -3.020363
2011-05-19 07:51:15 51°13.617 2°56.06 18.4525 0.065432 0.367301 -3.020363
2011-05-19 07:51:20 51°13.618 2°56.055 18.4669 0.06533 0.366705 -3.020363
2011-05-19 07:51:24 51°13.619 2°56.051 18.4662 0.06533 0.366705 -3.020363
2011-05-19 07:51:30 51°13.621 2°56.044 18.4742 0.065432 0.367308 -3.020363
2011-05-19 07:51:35 51°13.623 2°56.037 18.4715 0.065432 0.367308 -3.020363
2011-05-19 07:51:40 51°13.625 2°56.03 18.4718 0.06533 0.366705 -3.020363
2011-05-19 07:51:45 51°13.627 2°56.022 18.4869 0.065432 0.367308 -3.020363
2011-05-19 07:51:50 51°13.629 2°56.015 18.4868 0.065432 0.367308 -3.020363
2011-05-19 07:51:55 51°13.631 2°56.007 18.4818 0.065432 0.367308 -3.020363
2011-05-19 07:52:00 51°13.633 2°55.999 18.4804 0.06533 0.366719 -3.020363
2011-05-19 07:52:05 51°13.635 2°55.992 18.481 0.06533 0.366726 -3.020363
2011-05-19 07:52:10 51°13.637 2°55.984 18.4807 0.065432 0.367322 -3.020363
2011-05-19 07:52:15 51°13.639 2°55.977 18.481 0.06533 0.366732 -3.020363
2011-05-19 07:52:20 51°13.641 2°55.969 18.4824 0.06533 0.366732 -3.020363
2011-05-19 07:52:25 51°13.642 2°55.962 18.4806 0.06533 0.366732 -3.020363
2011-05-19 07:52:30 51°13.644 2°55.955 18.4806 0.065432 0.367328 -3.020363
2011-05-19 07:52:35 51°13.646 2°55.948 18.4798 0.06533 0.366732 -3.020363
2011-05-19 07:52:40 51°13.648 2°55.941 18.4747 0.06533 0.366726 -3.020363
2011-05-19 07:52:45 51°13.65 2°55.934 18.4807 0.065432 0.367322 -3.020363
2011-05-19 07:52:50 51°13.652 2°55.927 18.4836 0.065432 0.367328 -3.020363
2011-05-19 07:52:55 51°13.654 2°55.919 18.4883 0.065432 0.367328 -3.020363
2011-05-19 07:53:00 51°13.656 2°55.912 18.4912 0.065432 0.367328 -3.020363
2011-05-19 07:53:05 51°13.659 2°55.905 18.4908 0.06533 0.366732 -3.020363
2011-05-19 07:53:10 51°13.661 2°55.898 18.4903 0.065432 0.367335 -3.020363
2011-05-19 07:53:15 51°13.663 2°55.891 18.4909 0.065432 0.367335 -3.020363
2011-05-19 07:53:20 51°13.665 2°55.884 18.4923 0.06533 0.366746 -3.020363
2011-05-19 07:53:25 51°13.667 2°55.877 18.4927 0.06533 0.366746 -3.020363
2011-05-19 07:53:30 51°13.669 2°55.871 18.4937 0.065432 0.367342 -3.020363
2011-05-19 07:53:36 51°13.672 2°55.863 18.4909 0.065432 0.367342 -3.020363
2011-05-19 07:53:40 51°13.673 2°55.858 18.49 0.06533 0.366752 -3.020363
2011-05-19 07:53:45 51°13.675 2°55.852 18.493 0.06533 0.366752 -3.020363
2011-05-19 07:53:50 51°13.677 2°55.846 18.4904 0.065432 0.367348 -3.020363
2011-05-19 07:53:55 51°13.679 2°55.84 18.4909 0.065432 0.367348 -3.020363
2011-05-19 07:54:00 51°13.681 2°55.834 18.4897 0.06533 0.366759 -3.020363
2011-05-19 07:54:05 51°13.683 2°55.829 18.4914 0.065432 0.367355 -3.020363
2011-05-19 07:54:10 51°13.684 2°55.823 18.4937 0.065432 0.367355 -3.020363
2011-05-19 07:54:15 51°13.686 2°55.818 18.4976 0.06533 0.366759 -3.020363
2011-05-19 07:54:20 51°13.688 2°55.812 18.4981 0.065432 0.367355 -3.020363
2011-05-19 07:54:25 51°13.691 2°55.806 18.4976 0.065432 0.367355 -3.020363
2011-05-19 07:54:30 51°13.693 2°55.801 18.4963 0.06533 0.366766 -3.020363
2011-05-19 07:54:36 51°13.696 2°55.794 18.4952 0.06533 0.366766 -3.020363
2011-05-19 07:54:41 51°13.698 2°55.788 18.4954 0.065432 0.367362 -3.020363
2011-05-19 07:54:45 51°13.701 2°55.783 18.499 0.06533 0.366766 -3.020363
2011-05-19 07:54:50 51°13.704 2°55.777 18.4946 0.065432 0.367362 -3.020363
2011-05-19 07:54:55 51°13.707 2°55.77 18.5007 0.065432 0.367362 -3.020363
2011-05-19 07:55:01 51°13.711 2°55.763 18.503 0.06533 0.366773 -3.020363
2011-05-19 07:55:05 51°13.714 2°55.758 18.5044 0.06533 0.366773 -3.020363
2011-05-19 07:55:10 51°13.718 2°55.751 18.5047 0.06533 0.366773 -3.020363
2011-05-19 07:55:15 51°13.722 2°55.745 18.5056 0.06533 0.366779 -3.020363
2011-05-19 07:55:20 51°13.726 2°55.738 18.5039 0.065432 0.367375 -3.020363
2011-05-19 07:55:25 51°13.731 2°55.732 18.5114 0.065432 0.367375 -3.020363
2011-05-19 07:55:30 51°13.735 2°55.725 18.5107 0.06533 0.366779 -3.020363
2011-05-19 07:55:35 51°13.74 2°55.719 18.5078 0.065432 0.367382 -3.020363
2011-05-19 07:55:40 51°13.745 2°55.712 18.5113 0.06533 0.366786 -3.020363
2011-05-19 07:55:45 51°13.75 2°55.705 18.5088 0.06533 0.366786 -3.020363
2011-05-19 07:55:50 51°13.756 2°55.699 18.5132 0.06533 0.366786 -3.020363
2011-05-19 07:55:55 51°13.761 2°55.692 18.5134 0.06533 0.366786 -3.020363
2011-05-19 07:56:00 51°13.767 2°55.686 18.514 0.06533 0.366793 -3.020363
2011-05-19 07:56:05 51°13.773 2°55.68 18.5151 0.065432 0.367389 -3.020363
2011-05-19 07:56:10 51°13.779 2°55.674 18.5201 0.06533 0.3668 -3.020363
2011-05-19 07:56:15 51°13.785 2°55.668 18.5238 0.06533 0.3668 -3.020363
2011-05-19 07:56:20 51°13.791 2°55.662 18.5236 0.06533 0.3668 -3.020363
2011-05-19 07:56:25 51°13.797 2°55.657 18.5247 0.06533 0.3668 -3.020363
2011-05-19 07:56:30 51°13.803 2°55.651 18.5252 0.06533 0.366806 -3.020363
2011-05-19 07:56:35 51°13.81 2°55.647 18.5235 0.06533 0.366806 -3.020363
2011-05-19 07:56:40 51°13.817 2°55.642 18.5249 0.06533 0.366813 -3.020363
2011-05-19 07:56:46 51°13.825 2°55.637 18.5257 0.06533 0.366813 -3.020363
2011-05-19 07:56:49 51°13.829 2°55.635 18.532 0.06533 0.366813 -3.020363
2011-05-19 07:56:56 51°13.839 2°55.63 18.5269 0.06533 0.366813 -3.020363
2011-05-19 07:57:01 51°13.846 2°55.627 18.5245 0.06533 0.366813 -3.020363
2011-05-19 07:57:06 51°13.853 2°55.625 18.5313 0.06533 0.36682 -3.020363
2011-05-19 07:57:10 51°13.859 2°55.623 18.536 0.06533 0.36682 -3.020363
2011-05-19 07:57:15 51°13.866 2°55.622 18.5461 0.06533 0.366826 -3.020363
2011-05-19 07:57:21 51°13.874 2°55.62 18.5453 0.06533 0.366826 -3.020363
2011-05-19 07:57:25 51°13.88 2°55.619 18.5414 0.06533 0.366826 -3.020363
2011-05-19 07:57:30 51°13.887 2°55.619 18.5419 0.06533 0.366833 -3.020363
2011-05-19 07:57:35 51°13.893 2°55.619 18.5406 0.06533 0.366833 -3.020363
2011-05-19 07:57:40 51°13.899 2°55.619 18.541 0.06533 0.366833 -3.020363
2011-05-19 07:57:45 51°13.906 2°55.62 18.5412 0.06533 0.366833 -3.020363
2011-05-19 07:57:50 51°13.912 2°55.621 18.5414 0.06533 0.366833 -3.020363
2011-05-19 07:57:55 51°13.918 2°55.622 18.5411 0.06533 0.366833 -3.020363
2011-05-19 07:58:00 51°13.923 2°55.623 18.5395 0.06533 0.36684 -3.020363
2011-05-19 07:58:05 51°13.928 2°55.625 18.5407 0.06533 0.36684 -3.020363
2011-05-19 07:58:10 51°13.933 2°55.627 18.5486 0.06533 0.366847 -3.020363
2011-05-19 07:58:15 51°13.938 2°55.629 18.554 0.06533 0.366847 -3.020363
2011-05-19 07:58:20 51°13.942 2°55.631 18.5552 0.06533 0.366853 -3.020363
2011-05-19 07:58:25 51°13.946 2°55.632 18.5473 0.06533 0.366853 -3.020363
2011-05-19 07:58:30 51°13.949 2°55.634 18.549 0.06533 0.366853 -3.020363
2011-05-19 07:58:35 51°13.953 2°55.636 18.5461 0.06533 0.366853 -3.020363
2011-05-19 07:58:39 51°13.955 2°55.638 18.5463 0.06533 0.366853 -3.020363
2011-05-19 07:58:44 51°13.957 2°55.639 18.5489 0.06533 0.36686 -3.020363
2011-05-19 07:58:50 51°13.959 2°55.64 18.5493 0.06533 0.36686 -3.020363
2011-05-19 07:58:54 51°13.96 2°55.641 18.5478 0.06533 0.36686 -3.020363
2011-05-19 07:58:59 51°13.96 2°55.641 18.5484 0.06533 0.36686 -3.020363
2011-05-19 07:59:04 51°13.961 2°55.64 18.5567 0.06533 0.36686 -3.020363
2011-05-19 07:59:09 51°13.96 2°55.638 18.5612 0.06533 0.366867 -3.020363
2011-05-19 07:59:14 51°13.96 2°55.636 18.5642 0.06533 0.366874 -3.020363
2011-05-19 07:59:20 51°13.959 2°55.631 18.4571 0.06533 0.366867 -3.020363
2011-05-19 07:59:25 51°13.958 2°55.625 18.4194 0.06533 0.366867 -3.020363
2011-05-19 07:59:30 51°13.958 2°55.619 18.4798 0.06533 0.36684 -3.020363
2011-05-19 07:59:35 51°13.959 2°55.612 18.3643 0.06533 0.366826 -3.020363
2011-05-19 07:59:39 51°13.959 2°55.606 18.4207 0.06533 0.366793 -3.020363
2011-05-19 07:59:45 51°13.961 2°55.597 18.4927 0.06533 0.366793 -3.020363
2011-05-19 07:59:49 51°13.963 2°55.591 18.469 0.06533 0.366786 -3.020363
2011-05-19 07:59:55 51°13.967 2°55.582 18.3989 0.06533 0.366786 -3.020363
2011-05-19 07:59:59 51°13.97 2°55.577 18.4563 0.06533 0.366766 -3.020363
2011-05-19 08:00:04 51°13.974 2°55.57 18.5023 0.06533 0.366786 -3.020363
2011-05-19 08:00:09 51°13.979 2°55.563 18.5142 0.06533 0.36682 -3.020363
2011-05-19 08:00:14 51°13.985 2°55.557 18.5249 0.065432 0.367436 -3.020363
2011-05-19 08:00:19 51°13.991 2°55.551 18.5363 0.06533 0.366847 -3.020363
2011-05-19 08:00:23 51°13.996 2°55.545 18.5373 0.06533 0.366847 -3.020363
2011-05-19 08:00:28 51°14.002 2°55.539 18.5344 0.06533 0.366847 -3.020363
2011-05-19 08:00:33 51°14.009 2°55.533 18.5346 0.06533 0.36684 -3.020363
2011-05-19 08:00:38 51°14.016 2°55.526 18.5353 0.06533 0.36684 -3.020363
2011-05-19 08:00:43 51°14.023 2°55.52 18.5355 0.065432 0.367429 -3.020363
2011-05-19 08:00:48 51°14.03 2°55.513 18.5359 0.06533 0.366826 -3.020363
2011-05-19 08:00:53 51°14.037 2°55.506 18.5396 0.06533 0.366826 -3.020363
2011-05-19 08:00:59 51°14.047 2°55.497 18.5414 0.06533 0.366833 -3.020363
2011-05-19 08:01:04 51°14.055 2°55.49 18.5392 0.06533 0.366826 -3.020363
2011-05-19 08:01:08 51°14.062 2°55.483 18.5297 0.06533 0.366826 -3.020363
2011-05-19 08:01:14 51°14.073 2°55.473 18.5274 0.06533 0.366826 -3.020363
2011-05-19 08:01:19 51°14.082 2°55.464 18.5294 0.06533 0.366833 -3.020363
2011-05-19 08:01:24 51°14.092 2°55.456 18.5255 0.06533 0.366833 -3.020363
2011-05-19 08:01:28 51°14.1 2°55.449 18.5238 0.06533 0.36684 -3.020363
2011-05-19 08:01:33 51°14.11 2°55.44 18.5281 0.06533 0.366847 -3.020363
2011-05-19 08:01:38 51°14.12 2°55.431 18.5302 0.06533 0.366847 -3.020363
2011-05-19 08:01:44 51°14.132 2°55.419 18.5316 0.06533 0.366853 -3.020363
2011-05-19 08:01:48 51°14.141 2°55.412 18.5327 0.065432 0.367449 -3.020363
2011-05-19 08:01:53 51°14.151 2°55.402 18.5328 0.065432 0.367449 -3.020363
2011-05-19 08:01:58 51°14.162 2°55.392 18.5341 0.06533 0.36686 -3.020363
2011-05-19 08:02:03 51°14.173 2°55.381 18.5355 0.065432 0.367449 -3.020363
2011-05-19 08:02:08 51°14.183 2°55.371 18.5355 0.06533 0.36686 -3.020363
2011-05-19 08:02:12 51°14.192 2°55.362 18.5251 0.06533 0.36686 -3.020363
2011-05-19 08:02:17 51°14.203 2°55.352 18.5284 0.065432 0.367463 -3.020363
2011-05-19 08:02:23 51°14.217 2°55.339 18.5257 0.065432 0.367463 -3.020363
2011-05-19 08:02:28 51°14.228 2°55.328 18.5201 0.065432 0.367463 -3.020363
2011-05-19 08:02:32 51°14.237 2°55.32 18.5272 0.06533 0.366874 -3.020363
2011-05-19 08:02:37 51°14.248 2°55.308 18.5241 0.06533 0.366867 -3.020363
2011-05-19 08:02:43 51°14.262 2°55.295 18.5457 0.06533 0.366874 -3.020363
2011-05-19 08:02:48 51°14.274 2°55.283 18.5459 0.06533 0.366874 -3.020363
2011-05-19 08:02:52 51°14.284 2°55.273 18.5334 0.06533 0.366874 -3.020363
2011-05-19 08:02:57 51°14.296 2°55.261 18.5107 0.06533 0.366874 -3.020363
2011-05-19 08:03:02 51°14.308 2°55.249 18.5468 0.06533 0.366874 -3.020363
2011-05-19 08:03:07 51°14.32 2°55.237 18.5302 0.06533 0.36688 -3.020363
2011-05-19 08:03:13 51°14.335 2°55.221 18.5327 0.06533 0.36688 -3.020363
2011-05-19 08:03:17 51°14.345 2°55.211 18.5441 0.06533 0.366887 -3.020363
2011-05-19 08:03:22 51°14.358 2°55.198 18.5441 0.06533 0.366887 -3.020363
2011-05-19 08:03:27 51°14.371 2°55.185 18.5371 0.06533 0.366887 -3.020363
2011-05-19 08:03:33 51°14.386 2°55.169 18.5394 0.06533 0.366887 -3.020363
2011-05-19 08:03:38 51°14.399 2°55.156 18.5395 0.06533 0.366887 -3.020363
2011-05-19 08:03:43 51°14.411 2°55.142 18.5231 0.06533 0.366894 -3.020363
2011-05-19 08:03:49 51°14.427 2°55.125 18.5342 0.06533 0.3669 -3.020363
2011-05-19 08:03:53 51°14.437 2°55.114 18.5383 0.06533 0.3669 -3.020363
2011-05-19 08:03:59 51°14.452 2°55.096 18.5207 0.06533 0.366894 -3.020363
2011-05-19 08:04:04 51°14.465 2°55.082 18.5327 0.06533 0.366894 -3.020363
2011-05-19 08:04:09 51°14.478 2°55.067 18.5362 0.06533 0.366894 -3.020363
2011-05-19 08:04:14 51°14.491 2°55.052 18.5576 0.06533 0.3669 -3.020363
2011-05-19 08:04:20 51°14.506 2°55.032 18.52 0.06533 0.366894 -3.020363
2011-05-19 08:04:25 51°14.519 2°55.016 18.5087 0.06533 0.366894 -3.020363
2011-05-19 08:04:29 51°14.529 2°55.002 18.5078 0.06533 0.36688 -3.020363
2011-05-19 08:04:34 51°14.542 2°54.984 18.5078 0.06533 0.366874 -3.020363
2011-05-19 08:04:39 51°14.555 2°54.966 18.5139 0.065432 0.36747 -3.020363
2011-05-19 08:04:44 51°14.568 2°54.947 18.4895 0.06533 0.366867 -3.020363
2011-05-19 08:04:50 51°14.585 2°54.925 18.5771 0.065432 0.367497 -3.020363
2011-05-19 08:04:54 51°14.595 2°54.909 18.5702 0.065432 0.367497 -3.020363
2011-05-19 08:04:59 51°14.608 2°54.89 18.589 0.065432 0.36753 -3.020363
2011-05-19 08:05:04 51°14.62 2°54.869 18.6004 0.06533 0.366961 -3.020363
2011-05-19 08:05:09 51°14.632 2°54.846 18.6158 0.06533 0.366968 -3.020363
2011-05-19 08:05:14 51°14.642 2°54.822 18.6207 0.065432 0.367584 -3.020363
2011-05-19 08:05:18 51°14.649 2°54.802 18.6004 0.065432 0.367584 -3.020363
2011-05-19 08:05:23 51°14.658 2°54.776 18.6049 0.065432 0.367584 -3.020363
2011-05-19 08:05:28 51°14.665 2°54.748 18.5975 0.06533 0.366995 -3.020363
2011-05-19 08:05:33 51°14.67 2°54.72 18.6002 0.06533 0.366995 -3.020363
2011-05-19 08:05:38 51°14.675 2°54.691 18.5909 0.06533 0.367001 -3.020363
2011-05-19 08:05:42 51°14.677 2°54.667 18.5994 0.06533 0.367001 -3.020363
2011-05-19 08:05:47 51°14.679 2°54.637 18.6241 0.06533 0.367015 -3.020363
2011-05-19 08:05:53 51°14.679 2°54.601 18.6364 0.06533 0.367015 -3.020363
2011-05-19 08:05:58 51°14.677 2°54.571 18.6275 0.06533 0.367042 -3.020363
2011-05-19 08:06:02 51°14.674 2°54.548 18.6241 0.06533 0.367055 -3.020363
2011-05-19 08:06:07 51°14.668 2°54.519 18.563 0.06533 0.367049 -3.020363
2011-05-19 08:06:12 51°14.661 2°54.491 18.5348 0.06533 0.367028 -3.020363
2011-05-19 08:06:17 51°14.653 2°54.464 18.5698 0.06533 0.367022 -3.020363
2011-05-19 08:06:22 51°14.644 2°54.436 18.5464 0.06533 0.367022 -3.020363
2011-05-19 08:06:26 51°14.636 2°54.415 18.547 0.06533 0.367015 -3.020363
2011-05-19 08:06:31 51°14.626 2°54.389 18.4916 0.06533 0.367008 -3.020363
2011-05-19 08:06:36 51°14.615 2°54.364 18.5234 0.065432 0.367571 -3.020363
2011-05-19 08:06:41 51°14.603 2°54.339 18.52 0.06533 0.366968 -3.020363
2011-05-19 08:06:47 51°14.589 2°54.308 18.4987 0.06533 0.366948 -3.020363
2011-05-19 08:06:52 51°14.577 2°54.283 18.5439 0.06533 0.366948 -3.020363
2011-05-19 08:06:56 51°14.568 2°54.263 18.5535 0.06533 0.366974 -3.020363
2011-05-19 08:07:02 51°14.554 2°54.233 18.5169 0.065432 0.367578 -3.020363
2011-05-19 08:07:07 51°14.541 2°54.209 18.5446 0.065432 0.367591 -3.020363
2011-05-19 08:07:12 51°14.528 2°54.184 18.5477 0.065432 0.367591 -3.020363
2011-05-19 08:07:16 51°14.518 2°54.165 18.5245 0.065432 0.367598 -3.020363
2011-05-19 08:07:22 51°14.503 2°54.136 18.5072 0.065432 0.367598 -3.020363
2011-05-19 08:07:27 51°14.49 2°54.112 18.5118 0.065432 0.367578 -3.020363
2011-05-19 08:07:32 51°14.477 2°54.088 18.5109 0.065432 0.367584 -3.020363
2011-05-19 08:07:37 51°14.464 2°54.063 18.4953 0.065432 0.367578 -3.020363
2011-05-19 08:07:42 51°14.453 2°54.037 18.4869 0.065432 0.367564 -3.020363
2011-05-19 08:07:47 51°14.441 2°54.011 18.4683 0.06533 0.366961 -3.020363
2011-05-19 08:07:51 51°14.432 2°53.99 18.5091 0.06533 0.366961 -3.020363
2011-05-19 08:07:57 51°14.42 2°53.957 18.5247 0.065432 0.367551 -3.020363
2011-05-19 08:08:02 51°14.41 2°53.93 18.5349 0.06533 0.366974 -3.020363
2011-05-19 08:08:07 51°14.4 2°53.902 18.5447 0.06533 0.366988 -3.020363
2011-05-19 08:08:11 51°14.393 2°53.88 18.5424 0.06533 0.367001 -3.020363
2011-05-19 08:08:17 51°14.382 2°53.846 18.5456 0.06533 0.367015 -3.020363
2011-05-19 08:08:22 51°14.373 2°53.817 18.5384 0.06533 0.367015 -3.020363
2011-05-19 08:08:27 51°14.363 2°53.789 18.558 0.06533 0.367022 -3.020363
2011-05-19 08:08:31 51°14.356 2°53.766 18.5477 0.06533 0.367035 -3.020363
2011-05-19 08:08:37 51°14.345 2°53.732 18.5595 0.06533 0.367035 -3.020363
2011-05-19 08:08:42 51°14.336 2°53.703 18.5362 0.06533 0.367042 -3.020363
2011-05-19 08:08:47 51°14.327 2°53.675 18.5667 0.06533 0.367042 -3.020363
2011-05-19 08:08:52 51°14.317 2°53.647 18.5703 0.06533 0.367042 -3.020363
2011-05-19 08:08:56 51°14.31 2°53.624 18.5865 0.06533 0.367055 -3.020363
2011-05-19 08:09:02 51°14.298 2°53.591 18.5614 0.06533 0.367075 -3.020363
2011-05-19 08:09:07 51°14.287 2°53.564 18.5731 0.06533 0.367069 -3.020363
2011-05-19 08:09:12 51°14.276 2°53.537 18.5882 0.06533 0.367089 -3.020363
2011-05-19 08:09:16 51°14.266 2°53.516 18.5966 0.06533 0.367102 -3.020363
2011-05-19 08:09:21 51°14.254 2°53.492 18.5525 0.06533 0.367102 -3.020363
2011-05-19 08:09:27 51°14.238 2°53.463 18.5457 0.06533 0.367109 -3.020363
2011-05-19 08:09:32 51°14.224 2°53.439 18.5481 0.06533 0.367102 -3.020363
2011-05-19 08:09:36 51°14.213 2°53.421 18.5369 0.06533 0.367102 -3.020363
2011-05-19 08:09:41 51°14.199 2°53.397 18.5397 0.06533 0.367102 -3.020363
2011-05-19 08:09:47 51°14.182 2°53.369 18.5527 0.06533 0.367116 -3.020363
2011-05-19 08:09:52 51°14.168 2°53.346 18.5305 0.06533 0.367116 -3.020363
2011-05-19 08:09:56 51°14.157 2°53.327 18.5496 0.06533 0.367102 -3.020363
2011-05-19 08:10:01 51°14.143 2°53.304 18.552 0.06533 0.367109 -3.020363
2011-05-19 08:10:07 51°14.126 2°53.275 18.5229 0.06533 0.367116 -3.020363
2011-05-19 08:10:12 51°14.113 2°53.252 18.5504 0.06533 0.367109 -3.020363
2011-05-19 08:10:16 51°14.102 2°53.232 18.5034 0.06533 0.367102 -3.020363
2011-05-19 08:10:21 51°14.088 2°53.208 18.5287 0.06533 0.367102 -3.020363
2011-05-19 08:10:26 51°14.075 2°53.183 18.5174 0.06533 0.367102 -3.020363
2011-05-19 08:10:32 51°14.06 2°53.153 18.412 0.06533 0.367109 -3.020363
2011-05-19 08:10:36 51°14.05 2°53.132 16.7529 0.07448 0.422017 -3.020363
2011-05-19 08:10:41 51°14.037 2°53.106 16.2979 0.192632 1.141079 -3.020363
2011-05-19 08:10:46 51°14.026 2°53.08 15.8864 0.169288 0.994987 -3.020363
2011-05-19 08:10:52 51°14.012 2°53.048 15.6401 0.169288 0.994987 -3.020363
2011-05-19 08:10:56 51°14.002 2°53.027 15.4631 1.041155 6.827275 -3.020363
2011-05-19 08:11:01 51°13.99 2°53.001 15.36 1.907723 13.145708 -3.020363
2011-05-19 08:11:07 51°13.976 2°52.97 15.2479 2.468786 17.510963 -3.020363
2011-05-19 08:11:12 51°13.964 2°52.944 15.2514 2.840638 20.691016 -3.020363
2011-05-19 08:11:17 51°13.951 2°52.918 15.1587 3.574003 27.009178 -3.020363
2011-05-19 08:11:22 51°13.939 2°52.892 15.1309 3.574003 27.009178 -3.020363
2011-05-19 08:11:27 51°13.926 2°52.866 15.1087 3.855311 29.717768 -3.020363
2011-05-19 08:11:32 51°13.914 2°52.84 15.1104 3.962142 30.940878 -3.020363
2011-05-19 08:11:37 51°13.902 2°52.814 15.0829 3.995617 31.434745 -3.020363
2011-05-19 08:11:41 51°13.893 2°52.793 15.0644 4.013756 31.76008 -3.020363
2011-05-19 08:11:47 51°13.879 2°52.76 15.0673 4.016763 31.931628 -3.020363
2011-05-19 08:11:52 51°13.868 2°52.733 15.0418 4.016763 31.931628 -3.020363
2011-05-19 08:11:57 51°13.857 2°52.706 15.0396 4.026507 32.103658 -3.020363
2011-05-19 08:12:01 51°13.848 2°52.685 15.0593 4.032519 32.230582 -3.020363
2011-05-19 08:12:07 51°13.834 2°52.652 15.0046 4.034178 32.298873 -3.020363
2011-05-19 08:12:12 51°13.823 2°52.625 15.0191 4.031899 32.313823 -3.020363
2011-05-19 08:12:17 51°13.812 2°52.598 14.9937 4.02879 32.319353 -3.020363
2011-05-19 08:12:21 51°13.803 2°52.576 15.0014 4.02879 32.319353 -3.020363
2011-05-19 08:12:25 51°13.794 2°52.555 14.9945 4.027339 32.324075 -3.020363
2011-05-19 08:12:32 51°13.778 2°52.517 14.988 4.026821 32.338522 -3.020363
2011-05-19 08:12:37 51°13.766 2°52.49 14.9786 4.02848 32.368391 -3.020363
2011-05-19 08:12:41 51°13.757 2°52.468 14.9622 4.035528 32.447981 -3.020363
2011-05-19 08:12:46 51°13.746 2°52.441 14.9781 4.035735 32.464922 -3.020363
2011-05-19 08:12:52 51°13.732 2°52.409 14.9715 4.035735 32.464922 -3.020363
2011-05-19 08:12:57 51°13.721 2°52.382 14.9568 4.03615 32.48168 -3.020363
2011-05-19 08:13:01 51°13.712 2°52.36 14.9635 4.035632 32.487329 -3.020363
2011-05-19 08:13:07 51°13.698 2°52.327 14.9634 4.035736 32.495818 -3.020363
2011-05-19 08:13:12 51°13.687 2°52.3 14.9618 4.034078 32.491235 -3.020363
2011-05-19 08:13:17 51°13.676 2°52.272 14.9429 4.036876 32.525319 -3.020363
2011-05-19 08:13:21 51°13.667 2°52.251 14.9427 4.036876 32.525319 -3.020363
2011-05-19 08:13:27 51°13.654 2°52.218 14.9455 4.033352 32.499847 -3.020363
2011-05-19 08:13:32 51°13.642 2°52.191 14.936 4.036565 32.534232 -3.020363
2011-05-19 08:13:37 51°13.63 2°52.165 14.9277 4.035633 32.531358 -3.020363
2011-05-19 08:13:41 51°13.62 2°52.145 14.9326 4.035943 32.535531 -3.020363
2011-05-19 08:13:46 51°13.608 2°52.119 14.9387 4.035322 32.536142 -3.020363
2011-05-19 08:13:52 51°13.593 2°52.088 14.9173 4.035322 32.536142 -3.020363
2011-05-19 08:13:57 51°13.58 2°52.062 14.9206 4.036669 32.552396 -3.020363
2011-05-19 08:14:01 51°13.57 2°52.042 14.9093 4.0347 32.540891 -3.020363
2011-05-19 08:14:06 51°13.557 2°52.016 14.9062 4.036255 32.559706 -3.020363
2011-05-19 08:14:12 51°13.543 2°51.985 14.9101 4.03812 32.581325 -3.020363
2011-05-19 08:14:17 51°13.53 2°51.959 14.9054 4.03128 32.525292 -3.020363
2011-05-19 08:14:21 51°13.521 2°51.938 14.9081 4.03128 32.525292 -3.020363
2011-05-19 08:14:27 51°13.507 2°51.907 14.9046 4.037084 32.581669 -3.020363
2011-05-19 08:14:32 51°13.495 2°51.88 14.9052 4.037084 32.586506 -3.020363
2011-05-19 08:14:37 51°13.484 2°51.853 14.9039 4.030762 32.535117 -3.020363
2011-05-19 08:14:41 51°13.475 2°51.831 14.9129 4.033975 32.569569 -3.020363
2011-05-19 08:14:47 51°13.462 2°51.798 14.9094 4.035322 32.583776 -3.020363
2011-05-19 08:14:51 51°13.454 2°51.776 14.9001 4.035322 32.583776 -3.020363
2011-05-19 08:14:57 51°13.442 2°51.742 14.8981 4.038639 32.615723 -3.020363
2011-05-19 08:15:01 51°13.434 2°51.719 14.9023 4.036774 32.600995 -3.020363
2011-05-19 08:15:07 51°13.422 2°51.686 14.8981 4.036152 32.597469 -3.020363
2011-05-19 08:15:12 51°13.413 2°51.657 14.8867 4.037292 32.610508 -3.020363
2011-05-19 08:15:17 51°13.403 2°51.629 14.8875 4.038017 32.617737 -3.020363
2011-05-19 08:15:22 51°13.393 2°51.601 14.903 4.038017 32.617737 -3.020363
2011-05-19 08:15:26 51°13.385 2°51.578 14.8917 4.037603 32.614002 -3.020363
2011-05-19 08:15:32 51°13.372 2°51.545 14.886 4.038328 32.623308 -3.020363
2011-05-19 08:15:37 51°13.361 2°51.518 14.8866 4.037292 32.61674 -3.020363
2011-05-19 08:15:42 51°13.35 2°51.491 14.8887 4.037706 32.621861 -3.020363
2011-05-19 08:15:46 51°13.341 2°51.469 14.8875 4.038017 32.628127 -3.020363
2011-05-19 08:15:51 51°13.329 2°51.443 14.8954 4.038017 32.628127 -3.020363
2011-05-19 08:15:56 51°13.317 2°51.416 14.8846 4.039572 32.644218 -3.020363
2011-05-19 08:16:02 51°13.303 2°51.385 14.8915 4.039987 32.647262 -3.020363
2011-05-19 08:16:06 51°13.293 2°51.364 14.8903 4.039572 32.646992 -3.020363
2011-05-19 08:16:11 51°13.281 2°51.338 14.8836 4.041852 32.670323 -3.020363
2011-05-19 08:16:16 51°13.269 2°51.311 14.8831 4.043303 32.6841 -3.020363
2011-05-19 08:16:21 51°13.258 2°51.285 14.8711 4.043303 32.6841 -3.020363
2011-05-19 08:16:26 51°13.246 2°51.258 14.8776 4.042992 32.681296 -3.020363
2011-05-19 08:16:31 51°13.235 2°51.231 14.8771 4.043614 32.686209 -3.020363
2011-05-19 08:16:37 51°13.221 2°51.198 14.8776 4.043718 32.687838 -3.020363
2011-05-19 08:16:42 51°13.21 2°51.171 14.877 4.043614 32.688292 -3.020363
2011-05-19 08:16:46 51°13.202 2°51.148 14.8721 4.043822 32.691551 -3.020363
2011-05-19 08:16:50 51°13.194 2°51.125 14.8803 4.043822 32.691551 -3.020363
2011-05-19 08:16:56 51°13.182 2°51.091 14.8853 4.042889 32.686611 -3.020363
2011-05-19 08:17:01 51°13.172 2°51.062 14.8793 4.044133 32.700607 -3.020363
2011-05-19 08:17:06 51°13.162 2°51.034 14.8795 4.043925 32.700822 -3.020363
2011-05-19 08:17:11 51°13.152 2°51.005 14.8712 4.044236 32.703627 -3.020363
2011-05-19 08:17:16 51°13.143 2°50.976 14.8712 4.044029 32.703147 -3.020363
2011-05-19 08:17:22 51°13.131 2°50.941 14.8741 4.044029 32.703147 -3.020363
2011-05-19 08:17:27 51°13.122 2°50.912 14.8755 4.044029 32.703147 -3.020363
2011-05-19 08:17:32 51°13.112 2°50.883 14.876 4.043614 32.698018 -3.020363
2011-05-19 08:17:37 51°13.103 2°50.853 14.8734 4.043511 32.697083 -3.020363
2011-05-19 08:17:42 51°13.093 2°50.825 14.8721 4.043096 32.694038 -3.020363
2011-05-19 08:17:47 51°13.082 2°50.797 14.867 4.042785 32.694013 -3.020363
2011-05-19 08:17:51 51°13.073 2°50.774 14.8657 4.042785 32.694013 -3.020363
2011-05-19 08:17:55 51°13.064 2°50.752 14.8696 4.042164 32.689793 -3.020363
2011-05-19 08:18:02 51°13.048 2°50.714 14.8648 4.04206 32.688858 -3.020363
2011-05-19 08:18:07 51°13.036 2°50.687 14.8683 4.041334 32.681619 -3.020363
2011-05-19 08:18:11 51°13.027 2°50.666 14.8715 4.041127 32.680444 -3.020363
2011-05-19 08:18:16 51°13.015 2°50.639 14.8702 4.039883 32.670614 -3.020363
2011-05-19 08:18:22 51°13.001 2°50.606 14.8693 4.039883 32.670614 -3.020363
2011-05-19 08:18:27 51°12.99 2°50.577 14.872 4.040816 32.681112 -3.020363
2011-05-19 08:18:31 51°12.982 2°50.555 14.8804 4.040298 32.677827 -3.020363
2011-05-19 08:18:36 51°12.972 2°50.526 14.8777 4.039987 32.676411 -3.020363
2011-05-19 08:18:41 51°12.962 2°50.497 14.8779 4.038743 32.665191 -3.020363
2011-05-19 08:18:47 51°12.951 2°50.462 14.8832 4.038122 32.658192 -3.020363
2011-05-19 08:18:51 51°12.944 2°50.438 14.8803 4.038122 32.658192 -3.020363
2011-05-19 08:18:55 51°12.937 2°50.414 14.8781 4.030556 32.58926 -3.020363
2011-05-19 08:19:01 51°12.927 2°50.378 14.8753 4.036463 32.641846 -3.020363
2011-05-19 08:19:06 51°12.918 2°50.348 14.8737 4.037707 32.650982 -3.020363
2011-05-19 08:19:11 51°12.91 2°50.318 14.8712 4.03553 32.629964 -3.020363
2011-05-19 08:19:16 51°12.902 2°50.288 14.8724 4.037396 32.646096 -3.020363
2011-05-19 08:19:21 51°12.893 2°50.258 14.8721 4.037396 32.646096 -3.020363
2011-05-19 08:19:26 51°12.885 2°50.228 14.873 4.036567 32.637924 -3.020363
2011-05-19 08:19:32 51°12.875 2°50.192 14.8745 4.034909 32.622969 -3.020363
2011-05-19 08:19:35 51°12.87 2°50.175 14.8799 4.036878 32.641422 -3.020363
2011-05-19 08:19:41 51°12.859 2°50.139 14.8776 4.036671 32.641634 -3.020363
2011-05-19 08:19:47 51°12.847 2°50.105 14.878 4.036049 32.637413 -3.020363
2011-05-19 08:19:52 51°12.837 2°50.076 14.8813 4.036049 32.637413 -3.020363
2011-05-19 08:19:56 51°12.829 2°50.053 14.8735 4.03522 32.630628 -3.020363
2011-05-19 08:20:01 51°12.819 2°50.025 14.8748 4.033872 32.618476 -3.020363
2011-05-19 08:20:07 51°12.806 2°49.991 14.8739 4.032836 32.609822 -3.020363
2011-05-19 08:20:12 51°12.796 2°49.962 14.8728 4.031799 32.599782 -3.020363
2011-05-19 08:20:16 51°12.787 2°49.94 14.8731 4.031385 32.595351 -3.020363
2011-05-19 08:20:21 51°12.777 2°49.911 14.8661 4.031385 32.595351 -3.020363
2011-05-19 08:20:27 51°12.765 2°49.876 14.8674 4.031074 32.591854 -3.020363
2011-05-19 08:20:32 51°12.755 2°49.848 14.8642 4.030348 32.585313 -3.020363
2011-05-19 08:20:36 51°12.747 2°49.824 14.8593 4.030038 32.583201 -3.020363
2011-05-19 08:20:42 51°12.736 2°49.788 14.867 4.030141 32.584136 -3.020363
2011-05-19 08:20:47 51°12.728 2°49.758 14.8644 4.02983 32.582025 -3.020363
2011-05-19 08:20:52 51°12.72 2°49.727 14.8659 4.02983 32.582025 -3.020363
2011-05-19 08:20:56 51°12.713 2°49.703 14.8642 4.030245 32.587149 -3.020363
2011-05-19 08:21:01 51°12.705 2°49.672 14.8697 4.030349 32.590855 -3.020363
2011-05-19 08:21:07 51°12.695 2°49.635 14.8621 4.03097 32.598542 -3.020363
2011-05-19 08:21:12 51°12.686 2°49.605 14.862 4.031385 32.603668 -3.020363
2011-05-19 08:21:16 51°12.68 2°49.58 14.8594 4.028379 32.576559 -3.020363
2011-05-19 08:21:21 51°12.672 2°49.55 14.8628 4.028379 32.576559 -3.020363
2011-05-19 08:21:27 51°12.662 2°49.513 14.8666 4.032111 32.610905 -3.020363
2011-05-19 08:21:32 51°12.654 2°49.482 14.8677 4.032732 32.616515 -3.020363
2011-05-19 08:21:36 51°12.647 2°49.458 14.8705 4.032629 32.61558 -3.020363
2011-05-19 08:21:41 51°12.638 2°49.428 14.8686 4.033769 32.626558 -3.020363
2011-05-19 08:21:47 51°12.627 2°49.392 14.872 4.033872 32.628881 -3.020363
2011-05-19 08:21:52 51°12.617 2°49.362 14.8711 4.033872 32.628881 -3.020363
2011-05-19 08:21:56 51°12.609 2°49.339 14.8735 4.033769 32.627946 -3.020363
2011-05-19 08:22:01 51°12.598 2°49.311 14.8719 4.033251 32.62327 -3.020363
2011-05-19 08:22:06 51°12.588 2°49.281 14.8724 4.032421 32.614403 -3.020363
2011-05-19 08:22:11 51°12.577 2°49.253 14.8729 4.031592 32.605537 -3.020363
2011-05-19 08:22:16 51°12.567 2°49.224 14.8676 4.031592 32.605537 -3.020363
2011-05-19 08:22:21 51°12.557 2°49.195 14.8711 4.031592 32.605537 -3.020363
2011-05-19 08:22:27 51°12.545 2°49.16 14.8711 4.031385 32.602281 -3.020363
2011-05-19 08:22:32 51°12.534 2°49.132 14.8651 4.031489 32.602523 -3.020363
2011-05-19 08:22:37 51°12.525 2°49.102 14.8691 4.031592 32.603458 -3.020363
2011-05-19 08:22:41 51°12.517 2°49.079 14.8662 4.032007 32.606504 -3.020363
2011-05-19 08:22:47 51°12.505 2°49.044 14.8647 4.032629 32.612113 -3.020363
2011-05-19 08:22:52 51°12.496 2°49.014 14.8672 4.032629 32.612113 -3.020363
2011-05-19 08:22:57 51°12.487 2°48.984 14.8577 4.033147 32.61748 -3.020363
2011-05-19 08:23:01 51°12.48 2°48.96 14.8613 4.033872 32.624024 -3.020363
2011-05-19 08:23:07 51°12.47 2°48.924 14.8567 4.034494 32.631021 -3.020363
2011-05-19 08:23:12 51°12.462 2°48.894 14.8606 4.034494 32.631715 -3.020363
2011-05-19 08:23:17 51°12.453 2°48.864 14.8554 4.035945 32.646194 -3.020363
2011-05-19 08:23:21 51°12.447 2°48.839 14.8605 4.035945 32.646194 -3.020363
2011-05-19 08:23:27 51°12.437 2°48.803 14.8605 4.0375 32.66022 -3.020363
2011-05-19 08:23:32 51°12.429 2°48.773 14.8581 4.03864 32.672591 -3.020363
2011-05-19 08:23:37 51°12.42 2°48.743 14.8546 4.03978 32.684269 -3.020363
2011-05-19 08:23:41 51°12.414 2°48.719 14.858 4.040609 32.693143 -3.020363
2011-05-19 08:23:46 51°12.405 2°48.689 14.8553 4.041024 32.69758 -3.020363
2011-05-19 08:23:52 51°12.393 2°48.654 14.8537 4.041024 32.69758 -3.020363
2011-05-19 08:23:57 51°12.383 2°48.625 14.8555 4.041438 32.702017 -3.020363
2011-05-19 08:24:01 51°12.376 2°48.602 14.8561 4.041542 32.702952 -3.020363
2011-05-19 08:24:07 51°12.364 2°48.568 14.8538 4.041335 32.701777 -3.020363
2011-05-19 08:24:12 51°12.354 2°48.539 14.8544 4.041231 32.702233 -3.020363
2011-05-19 08:24:17 51°12.344 2°48.51 14.8558 4.041127 32.701297 -3.020363
2011-05-19 08:24:21 51°12.337 2°48.486 14.8495 4.041127 32.701297 -3.020363
2011-05-19 08:24:27 51°12.326 2°48.451 14.8485 4.040817 32.699882 -3.020363
2011-05-19 08:24:32 51°12.317 2°48.422 14.8469 4.040713 32.698946 -3.020363
2011-05-19 08:24:37 51°12.308 2°48.392 14.8482 4.040817 32.700577 -3.020363
2011-05-19 08:24:42 51°12.299 2°48.362 14.8418 4.04092 32.701513 -3.020363
2011-05-19 08:24:46 51°12.292 2°48.338 14.8356 4.041024 32.702449 -3.020363
2011-05-19 08:24:51 51°12.284 2°48.308 14.8363 4.041024 32.702449 -3.020363
2011-05-19 08:24:57 51°12.275 2°48.272 14.8274 4.041024 32.703144 -3.020363
2011-05-19 08:25:02 51°12.267 2°48.241 14.8215 4.041231 32.707103 -3.020363
2011-05-19 08:25:06 51°12.261 2°48.217 14.8177 4.041231 32.708495 -3.020363
2011-05-19 08:25:11 51°12.254 2°48.186 14.8126 4.041749 32.713869 -3.020363
2011-05-19 08:25:16 51°12.246 2°48.156 14.8177 4.042164 32.719701 -3.020363
2011-05-19 08:25:22 51°12.237 2°48.119 14.8046 4.042164 32.719701 -3.020363
2011-05-19 08:25:26 51°12.231 2°48.095 14.8016 4.042268 32.724118 -3.020363
2011-05-19 08:25:31 51°12.223 2°48.065 14.8006 4.043304 32.736961 -3.020363
2011-05-19 08:25:36 51°12.215 2°48.034 14.7971 4.043822 32.747915 -3.020363
2011-05-19 08:25:42 51°12.206 2°47.998 14.7925 4.044133 32.754908 -3.020363
2011-05-19 08:25:46 51°12.2 2°47.974 14.7913 4.044341 32.760268 -3.020363
2011-05-19 08:25:51 51°12.192 2°47.944 14.7887 4.044341 32.760268 -3.020363
2011-05-19 08:25:57 51°12.182 2°47.907 14.7883 4.044859 32.76844 -3.020363
2011-05-19 08:26:02 51°12.174 2°47.878 14.7862 4.045274 32.777073 -3.020363
2011-05-19 08:26:06 51°12.167 2°47.854 14.7847 4.045688 32.784312 -3.020363
2011-05-19 08:26:11 51°12.158 2°47.824 14.782 4.04517 32.782421 -3.020363
2011-05-19 08:26:16 51°12.149 2°47.795 14.7812 4.046207 32.795984 -3.020363
2011-05-19 08:26:22 51°12.138 2°47.759 14.7806 4.046207 32.795984 -3.020363
2011-05-19 08:26:26 51°12.131 2°47.735 14.7776 4.04631 32.799717 -3.020363
2011-05-19 08:26:31 51°12.123 2°47.705 14.7794 4.046621 32.804626 -3.020363
2011-05-19 08:26:37 51°12.113 2°47.669 14.7779 4.046725 32.807661 -3.020363
2011-05-19 08:26:42 51°12.105 2°47.639 14.773 4.046621 32.808821 -3.020363
2011-05-19 08:26:46 51°12.099 2°47.614 14.7722 4.046621 32.81022 -3.020363
2011-05-19 08:26:51 51°12.092 2°47.583 14.7726 4.046621 32.81022 -3.020363
2011-05-19 08:26:56 51°12.085 2°47.552 14.7676 4.046725 32.812557 -3.020363
2011-05-19 08:27:02 51°12.077 2°47.514 14.7665 4.046518 32.812081 -3.020363
2011-05-19 08:27:06 51°12.072 2°47.489 14.7609 4.046207 32.809967 -3.020363
2011-05-19 08:27:11 51°12.066 2°47.458 14.76 4.046518 32.814879 -3.020363
2011-05-19 08:27:16 51°12.06 2°47.426 14.7604 4.046829 32.819791 -3.020363
2011-05-19 08:27:22 51°12.053 2°47.388 14.753 4.046829 32.819791 -3.020363
2011-05-19 08:27:26 51°12.049 2°47.363 14.7539 4.04714 32.824004 -3.020363
2011-05-19 08:27:31 51°12.043 2°47.331 14.7547 4.046725 32.822353 -3.020363
2011-05-19 08:27:36 51°12.037 2°47.299 14.7484 4.048073 32.836646 -3.020363
2011-05-19 08:27:41 51°12.032 2°47.267 14.7505 4.048695 32.845075 -3.020363
2011-05-19 08:27:46 51°12.026 2°47.235 14.7519 4.048487 32.8439 -3.020363
2011-05-19 08:27:51 51°12.021 2°47.203 14.7498 4.048487 32.8439 -3.020363
2011-05-19 08:27:56 51°12.016 2°47.171 14.7493 4.049938 32.860537 -3.020363
2011-05-19 08:28:02 51°12.009 2°47.133 14.7542 4.049524 32.859589 -3.020363
2011-05-19 08:28:06 51°12.005 2°47.107 14.7527 4.050249 32.86826 -3.020363
2011-05-19 08:28:11 51°12 2°47.074 14.7536 4.051286 32.879749 -3.020363
2011-05-19 08:28:17 51°11.994 2°47.036 14.7571 4.051493 32.882327 -3.020363
2011-05-19 08:28:22 51°11.988 2°47.004 14.7578 4.051493 32.882327 -3.020363
2011-05-19 08:28:26 51°11.983 2°46.978 14.7616 4.051597 32.883967 -3.020363
2011-05-19 08:28:31 51°11.977 2°46.946 14.7647 4.051597 32.885371 -3.020363
2011-05-19 08:28:37 51°11.969 2°46.908 14.7716 4.051493 32.883731 -3.020363
2011-05-19 08:28:42 51°11.963 2°46.877 14.7718 4.051389 32.88209 -3.020363
2011-05-19 08:28:46 51°11.957 2°46.851 14.7772 4.051079 32.879275 -3.020363
2011-05-19 08:28:51 51°11.951 2°46.82 14.7767 4.051079 32.879275 -3.020363
2011-05-19 08:28:56 51°11.945 2°46.788 14.7794 4.050975 32.876933 -3.020363
2011-05-19 08:29:02 51°11.939 2°46.749 14.7813 4.05056 32.871777 -3.020363
2011-05-19 08:29:06 51°11.935 2°46.723 14.7835 4.050353 32.867796 -3.020363
2011-05-19 08:29:11 51°11.93 2°46.69 14.7826 4.049938 32.860537 -3.020363
2011-05-19 08:29:17 51°11.924 2°46.652 14.7807 4.04942 32.851641 -3.020363
2011-05-19 08:29:22 51°11.92 2°46.619 14.7808 4.04942 32.851641 -3.020363
2011-05-19 08:29:26 51°11.916 2°46.593 14.7805 4.049109 32.846025 -3.020363
2011-05-19 08:29:31 51°11.912 2°46.561 14.781 4.048694 32.840872 -3.020363
2011-05-19 08:29:36 51°11.908 2°46.528 14.7746 4.04828 32.83432 -3.020363
2011-05-19 08:29:42 51°11.903 2°46.489 14.7757 4.047762 32.828231 -3.020363
2011-05-19 08:29:46 51°11.9 2°46.464 14.7741 4.047865 32.827768 -3.020363
2011-05-19 08:29:51 51°11.896 2°46.431 14.7709 4.047865 32.827768 -3.020363
2011-05-19 08:29:56 51°11.892 2°46.399 14.7714 4.047658 32.825893 -3.020363
2011-05-19 08:30:02 51°11.886 2°46.36 14.7685 4.047243 32.822142 -3.020363
2011-05-19 08:30:06 51°11.883 2°46.334 14.764 4.047969 32.829406 -3.020363
2011-05-19 08:30:11 51°11.877 2°46.302 14.765 4.048176 32.832682 -3.020363
2011-05-19 08:30:17 51°11.871 2°46.264 14.7614 4.048384 32.835958 -3.020363
2011-05-19 08:30:22 51°11.866 2°46.232 14.7663 4.048384 32.835958 -3.020363
2011-05-19 08:30:26 51°11.861 2°46.206 14.757 4.049109 32.843923 -3.020363
2011-05-19 08:30:32 51°11.854 2°46.168 14.7583 4.049213 32.845562 -3.020363
2011-05-19 08:30:36 51°11.849 2°46.143 14.7514 4.049627 32.851415 -3.020363
2011-05-19 08:30:42 51°11.842 2°46.105 14.7485 4.050146 32.858208 -3.020363
2011-05-19 08:30:47 51°11.837 2°46.073 14.7482 4.050871 32.866177 -3.020363
2011-05-19 08:30:52 51°11.832 2°46.041 14.7439 4.050871 32.866177 -3.020363
2011-05-19 08:30:57 51°11.828 2°46.008 14.7471 4.050457 32.864527 -3.020363
2011-05-19 08:31:02 51°11.824 2°45.976 14.7431 4.0517 32.877189 -3.020363
2011-05-19 08:31:07 51°11.82 2°45.944 14.731 4.051493 32.878118 -3.020363
2011-05-19 08:31:11 51°11.818 2°45.918 14.73 4.052944 32.893361 -3.020363
2011-05-19 08:31:17 51°11.814 2°45.879 14.725 4.052944 32.895466 -3.020363
2011-05-19 08:31:22 51°11.81 2°45.847 14.7109 4.052944 32.895466 -3.020363
2011-05-19 08:31:27 51°11.807 2°45.815 14.6998 4.053566 32.903906 -3.020363
2011-05-19 08:31:31 51°11.805 2°45.789 14.693 4.054084 32.910707 -3.020363
2011-05-19 08:31:37 51°11.801 2°45.751 14.6819 4.054603 32.918211 -3.020363
2011-05-19 08:31:42 51°11.797 2°45.719 14.6855 4.055432 32.929236 -3.020363
2011-05-19 08:31:46 51°11.795 2°45.693 14.6781 4.056779 32.946366 -3.020363
2011-05-19 08:31:51 51°11.791 2°45.662 14.671 4.056779 32.946366 -3.020363
2011-05-19 08:31:56 51°11.788 2°45.63 14.6617 4.058023 32.96186 -3.020363
2011-05-19 08:32:01 51°11.784 2°45.598 14.6585 4.060303 32.991686 -3.020363
2011-05-19 08:32:07 51°11.779 2°45.56 14.6601 4.062169 33.016359 -3.020363
2011-05-19 08:32:11 51°11.775 2°45.535 14.6515 4.063931 33.040813 -3.020363
2011-05-19 08:32:17 51°11.769 2°45.497 14.6541 4.064968 33.055869 -3.020363
2011-05-19 08:32:22 51°11.765 2°45.466 14.6555 4.064968 33.055869 -3.020363
2011-05-19 08:32:27 51°11.759 2°45.435 14.6585 4.065901 33.06999 -3.020363
2011-05-19 08:32:32 51°11.754 2°45.403 14.6544 4.067559 33.091411 -3.020363
2011-05-19 08:32:36 51°11.75 2°45.378 14.6566 4.068699 33.107427 -3.020363
2011-05-19 08:32:42 51°11.744 2°45.34 14.6537 4.069321 33.117325 -3.020363
2011-05-19 08:32:47 51°11.74 2°45.309 14.6594 4.06984 33.126285 -3.020363
2011-05-19 08:32:52 51°11.735 2°45.277 14.6623 4.06984 33.126285 -3.020363
2011-05-19 08:32:57 51°11.732 2°45.245 14.6627 4.069943 33.128644 -3.020363
2011-05-19 08:33:02 51°11.728 2°45.213 14.6634 4.06984 33.129121 -3.020363
2011-05-19 08:33:07 51°11.725 2°45.181 14.6687 4.069736 33.128888 -3.020363
2011-05-19 08:33:12 51°11.722 2°45.149 14.6598 4.069425 33.126064 -3.020363
2011-05-19 08:33:16 51°11.72 2°45.124 14.6646 4.069011 33.123006 -3.020363
2011-05-19 08:33:22 51°11.717 2°45.086 14.6634 4.069011 33.123006 -3.020363
2011-05-19 08:33:26 51°11.715 2°45.061 14.6658 4.068285 33.114998 -3.020363
2011-05-19 08:33:32 51°11.712 2°45.024 14.6488 4.067767 33.108165 -3.020363
2011-05-19 08:33:37 51°11.71 2°44.993 14.6366 4.066938 33.099926 -3.020363
2011-05-19 08:33:42 51°11.708 2°44.961 14.6173 4.066419 33.093094 -3.020363
2011-05-19 08:33:47 51°11.706 2°44.93 14.61 4.065901 33.089096 -3.020363
2011-05-19 08:33:52 51°11.703 2°44.9 14.5892 4.065901 33.089096 -3.020363
2011-05-19 08:33:56 51°11.701 2°44.875 14.5769 4.065797 33.088155 -3.020363
2011-05-19 08:34:02 51°11.698 2°44.838 14.5606 4.066108 33.090979 -3.020363
2011-05-19 08:34:07 51°11.695 2°44.807 14.5431 4.067249 33.105583 -3.020363
2011-05-19 08:34:12 51°11.692 2°44.777 14.5388 4.069218 33.129853 -3.020363
2011-05-19 08:34:16 51°11.689 2°44.752 14.5286 4.072224 33.169236 -3.020363
2011-05-19 08:34:22 51°11.685 2°44.716 14.5217 4.072224 33.169236 -3.020363
2011-05-19 08:34:26 51°11.682 2°44.692 14.5221 4.075023 33.206767 -3.020363
2011-05-19 08:34:32 51°11.677 2°44.655 14.5071 4.077407 33.239845 -3.020363
2011-05-19 08:34:36 51°11.673 2°44.631 14.4958 4.079895 33.278174 -3.020363
2011-05-19 08:34:41 51°11.669 2°44.601 14.4937 4.082072 33.312281 -3.020363
2011-05-19 08:34:46 51°11.666 2°44.571 14.4857 4.084041 33.341668 -3.020363
2011-05-19 08:34:52 51°11.661 2°44.535 14.4849 4.084041 33.341668 -3.020363
2011-05-19 08:34:56 51°11.658 2°44.511 14.4837 4.084974 33.358762 -3.020363
2011-05-19 08:35:01 51°11.655 2°44.48 14.4754 4.086011 33.378246 -3.020363
2011-05-19 08:35:06 51°11.652 2°44.45 14.4669 4.086944 33.394644 -3.020363
2011-05-19 08:35:12 51°11.648 2°44.413 14.4641 4.086218 33.396638 -3.020363
2011-05-19 08:35:16 51°11.646 2°44.389 14.4582 4.086633 33.407601 -3.020363
2011-05-19 08:35:21 51°11.644 2°44.359 14.4615 4.086633 33.407601 -3.020363
2011-05-19 08:35:26 51°11.642 2°44.328 14.4492 4.089017 33.436546 -3.020363
2011-05-19 08:35:32 51°11.639 2°44.292 14.4535 4.089121 33.443246 -3.020363
2011-05-19 08:35:37 51°11.637 2°44.261 14.4518 4.089536 33.452068 -3.020363
2011-05-19 08:35:41 51°11.636 2°44.237 14.4454 4.089743 33.45972 -3.020363
2011-05-19 08:35:47 51°11.633 2°44.2 14.4373 4.090054 33.467601 -3.020363
2011-05-19 08:35:52 51°11.631 2°44.17 14.4436 4.090054 33.467601 -3.020363
2011-05-19 08:35:57 51°11.629 2°44.139 14.4432 4.08995 33.470977 -3.020363
2011-05-19 08:36:01 51°11.627 2°44.115 14.4422 4.090158 33.477915 -3.020363
2011-05-19 08:36:07 51°11.625 2°44.079 14.4336 4.090158 33.481519 -3.020363
2011-05-19 08:36:12 51°11.622 2°44.048 14.4364 4.089951 33.481787 -3.020363
2011-05-19 08:36:17 51°11.62 2°44.018 14.4303 4.090158 33.487287 -3.020363
2011-05-19 08:36:21 51°11.618 2°43.994 14.4274 4.090158 33.487287 -3.020363
2011-05-19 08:36:26 51°11.615 2°43.963 14.4271 4.090262 33.49112 -3.020363
2011-05-19 08:36:32 51°11.612 2°43.927 14.4273 4.090158 33.492337 -3.020363
2011-05-19 08:36:36 51°11.61 2°43.903 14.4347 4.090054 33.492832 -3.020363
2011-05-19 08:36:41 51°11.607 2°43.872 14.429 4.089951 33.494049 -3.020363
2011-05-19 08:36:47 51°11.604 2°43.836 14.4289 4.089951 33.496214 -3.020363
2011-05-19 08:36:52 51°11.602 2°43.806 14.4236 4.089951 33.496214 -3.020363
2011-05-19 08:36:57 51°11.599 2°43.776 14.4285 4.089951 33.499101 -3.020363
2011-05-19 08:37:02 51°11.596 2°43.746 14.4231 4.089951 33.501266 -3.020363
2011-05-19 08:37:07 51°11.594 2°43.716 14.4251 4.089744 33.501536 -3.020363
2011-05-19 08:37:12 51°11.591 2°43.685 14.4187 4.089433 33.498693 -3.020363
2011-05-19 08:37:17 51°11.587 2°43.656 14.4149 4.089329 33.497745 -3.020363
2011-05-19 08:37:22 51°11.583 2°43.626 14.4155 4.089329 33.497745 -3.020363
2011-05-19 08:37:26 51°11.58 2°43.602 14.4155 4.089329 33.499189 -3.020363
2011-05-19 08:37:32 51°11.575 2°43.566 14.4113 4.089329 33.500632 -3.020363
2011-05-19 08:37:37 51°11.571 2°43.537 14.4068 4.089225 33.500407 -3.020363
2011-05-19 08:37:42 51°11.566 2°43.507 14.4106 4.089225 33.502573 -3.020363
2011-05-19 08:37:46 51°11.563 2°43.483 14.4045 4.089329 33.505687 -3.020363
2011-05-19 08:37:51 51°11.559 2°43.454 14.4071 4.089329 33.505687 -3.020363
2011-05-19 08:37:56 51°11.556 2°43.424 14.4062 4.089329 33.508577 -3.020363
2011-05-19 08:38:02 51°11.552 2°43.388 14.4037 4.089122 33.508847 -3.020363
2011-05-19 08:38:06 51°11.549 2°43.364 14.3982 4.089122 33.510292 -3.020363
2011-05-19 08:38:12 51°11.546 2°43.328 14.3959 4.089122 33.51246 -3.020363
2011-05-19 08:38:17 51°11.543 2°43.298 14.3958 4.089018 33.512957 -3.020363
2011-05-19 08:38:22 51°11.54 2°43.268 14.3942 4.089018 33.512957 -3.020363
2011-05-19 08:38:27 51°11.537 2°43.237 14.3996 4.089018 33.514402 -3.020363
2011-05-19 08:38:31 51°11.535 2°43.213 14.3911 4.089018 33.515848 -3.020363
2011-05-19 08:38:37 51°11.533 2°43.177 14.3899 4.088915 33.516345 -3.020363
2011-05-19 08:38:42 51°11.531 2°43.147 14.3906 4.089018 33.519462 -3.020363
2011-05-19 08:38:47 51°11.529 2°43.117 14.3857 4.088811 33.519011 -3.020363
2011-05-19 08:38:52 51°11.526 2°43.086 14.383 4.088811 33.519011 -3.020363
2011-05-19 08:38:56 51°11.525 2°43.062 14.3796 4.088811 33.52118 -3.020363
2011-05-19 08:39:02 51°11.522 2°43.026 14.377 4.088708 33.521678 -3.020363
2011-05-19 08:39:07 51°11.52 2°42.996 14.372 4.088708 33.523124 -3.020363
2011-05-19 08:39:11 51°11.518 2°42.972 14.369 4.088708 33.525294 -3.020363
2011-05-19 08:39:17 51°11.514 2°42.936 14.3712 4.088604 33.525068 -3.020363
2011-05-19 08:39:22 51°11.511 2°42.906 14.3678 4.088604 33.525068 -3.020363
2011-05-19 08:39:27 51°11.507 2°42.876 14.3622 4.088604 33.527962 -3.020363
2011-05-19 08:39:31 51°11.504 2°42.852 14.3622 4.0885 33.529907 -3.020363
2011-05-19 08:39:36 51°11.5 2°42.822 14.358 4.0885 33.532801 -3.020363
2011-05-19 08:39:41 51°11.496 2°42.792 14.3581 4.088397 33.534747 -3.020363
2011-05-19 08:39:46 51°11.491 2°42.763 14.3558 4.088397 33.537643 -3.020363
2011-05-19 08:39:51 51°11.487 2°42.733 14.3523 4.088397 33.537643 -3.020363
2011-05-19 08:39:56 51°11.483 2°42.704 14.3512 4.088293 33.538865 -3.020363
2011-05-19 08:40:02 51°11.477 2°42.668 14.3491 4.088397 33.542711 -3.020363
2011-05-19 08:40:07 51°11.473 2°42.638 14.3492 4.088397 33.545608 -3.020363
2011-05-19 08:40:12 51°11.469 2°42.608 14.3461 4.088293 33.547556 -3.020363
2011-05-19 08:40:16 51°11.466 2°42.584 14.3406 4.088397 33.549955 -3.020363
2011-05-19 08:40:21 51°11.462 2°42.554 14.3414 4.088397 33.549955 -3.020363
2011-05-19 08:40:27 51°11.459 2°42.518 14.3379 4.087879 33.54738 -3.020363
2011-05-19 08:40:32 51°11.455 2°42.488 14.3393 4.087672 33.548379 -3.020363
2011-05-19 08:40:36 51°11.452 2°42.464 14.3306 4.087983 33.553403 -3.020363
2011-05-19 08:40:42 51°11.448 2°42.428 14.3278 4.087879 33.553178 -3.020363
2011-05-19 08:40:46 51°11.445 2°42.403 14.3329 4.088086 33.557252 -3.020363
2011-05-19 08:40:52 51°11.439 2°42.368 14.3253 4.088086 33.557252 -3.020363
2011-05-19 08:40:56 51°11.435 2°42.344 14.3223 4.088086 33.559427 -3.020363
2011-05-19 08:41:02 51°11.428 2°42.309 14.326 4.087879 33.560427 -3.020363
2011-05-19 08:41:07 51°11.422 2°42.28 14.3222 4.08819 33.564728 -3.020363
2011-05-19 08:41:12 51°11.415 2°42.251 14.3197 4.08819 33.567629 -3.020363
2011-05-19 08:41:16 51°11.41 2°42.228 14.3193 4.08819 33.571257 -3.020363
2011-05-19 08:41:21 51°11.403 2°42.199 14.316 4.08819 33.571257 -3.020363
2011-05-19 08:41:26 51°11.396 2°42.17 14.3157 4.087879 33.570583 -3.020363
2011-05-19 08:41:32 51°11.387 2°42.136 14.3188 4.087776 33.571809 -3.020363
2011-05-19 08:41:36 51°11.381 2°42.114 14.3174 4.087879 33.574937 -3.020363
2011-05-19 08:41:41 51°11.372 2°42.086 14.3154 4.088087 33.57829 -3.020363
2011-05-19 08:41:46 51°11.364 2°42.058 14.312 4.088294 33.581643 -3.020363
2011-05-19 08:41:53 51°11.352 2°42.02 14.3149 4.088294 33.581643 -3.020363
2011-05-19 08:41:57 51°11.345 2°41.998 14.3109 4.08819 33.58287 -3.020363
2011-05-19 08:42:02 51°11.336 2°41.97 14.3117 4.087879 33.581471 -3.020363
2011-05-19 08:42:06 51°11.329 2°41.948 14.3137 4.087776 33.581246 -3.020363
2011-05-19 08:42:12 51°11.319 2°41.915 14.3145 4.087879 33.582923 -3.020363
2011-05-19 08:42:17 51°11.31 2°41.887 14.3165 4.087983 33.585326 -3.020363
2011-05-19 08:42:22 51°11.302 2°41.859 14.3168 4.087983 33.585326 -3.020363
2011-05-19 08:42:26 51°11.295 2°41.837 14.3159 4.087361 33.580348 -3.020363
2011-05-19 08:42:32 51°11.286 2°41.803 14.3197 4.087983 33.586779 -3.020363
2011-05-19 08:42:37 51°11.278 2°41.774 14.3131 4.087776 33.584877 -3.020363
2011-05-19 08:42:42 51°11.269 2°41.746 14.312 4.088294 33.590357 -3.020363
2011-05-19 08:42:46 51°11.263 2°41.723 14.3131 4.088398 33.590582 -3.020363
2011-05-19 08:42:52 51°11.252 2°41.69 14.3128 4.088398 33.590582 -3.020363
2011-05-19 08:42:57 51°11.243 2°41.663 14.3118 4.08819 33.587954 -3.020363
2011-05-19 08:43:01 51°11.235 2°41.641 14.312 4.088501 33.590806 -3.020363
2011-05-19 08:43:07 51°11.223 2°41.609 14.312 4.088605 33.59103 -3.020363
2011-05-19 08:43:12 51°11.213 2°41.583 14.3076 4.088605 33.59103 -3.020363
2011-05-19 08:43:16 51°11.205 2°41.562 14.3083 4.088605 33.592483 -3.020363
2011-05-19 08:43:21 51°11.194 2°41.535 14.3076 4.088605 33.592483 -3.020363
2011-05-19 08:43:27 51°11.181 2°41.504 14.3123 4.088398 33.592035 -3.020363
2011-05-19 08:43:32 51°11.171 2°41.477 14.3121 4.088501 33.592985 -3.020363
2011-05-19 08:43:37 51°11.16 2°41.451 14.3098 4.08819 33.59086 -3.020363
2011-05-19 08:43:41 51°11.152 2°41.43 14.3094 4.08819 33.591586 -3.020363
2011-05-19 08:43:46 51°11.141 2°41.403 14.3104 4.088294 33.59399 -3.020363
2011-05-19 08:43:51 51°11.131 2°41.377 14.3095 4.088294 33.59399 -3.020363
2011-05-19 08:43:56 51°11.121 2°41.35 14.3063 4.087672 33.588285 -3.020363
2011-05-19 08:44:02 51°11.109 2°41.318 14.3106 4.087154 33.583531 -3.020363
2011-05-19 08:44:07 51°11.1 2°41.29 14.3067 4.08819 33.592313 -3.020363
2011-05-19 08:44:12 51°11.09 2°41.262 14.3037 4.087465 33.585657 -3.020363
2011-05-19 08:44:17 51°11.082 2°41.234 14.3079 4.088294 33.593264 -3.020363
2011-05-19 08:44:22 51°11.073 2°41.206 14.3097 4.088294 33.593264 -3.020363
2011-05-19 08:44:26 51°11.065 2°41.184 14.3026 4.088605 33.596116 -3.020363
2011-05-19 08:44:31 51°11.057 2°41.156 14.2998 4.088812 33.598744 -3.020363
2011-05-19 08:44:37 51°11.046 2°41.122 14.2974 4.088501 33.596619 -3.020363
2011-05-19 08:44:42 51°11.037 2°41.094 14.2959 4.08902 33.6021 -3.020363
2011-05-19 08:44:46 51°11.03 2°41.072 14.2996 4.08902 33.602827 -3.020363
2011-05-19 08:44:51 51°11.021 2°41.044 14.2965 4.08902 33.602827 -3.020363
2011-05-19 08:44:57 51°11.01 2°41.01 14.2986 4.08902 33.602827 -3.020363
2011-05-19 08:45:02 51°11.001 2°40.983 14.2931 4.089227 33.605456 -3.020363
2011-05-19 08:45:06 51°10.994 2°40.961 14.2953 4.089331 33.608588 -3.020363
2011-05-19 08:45:11 51°10.984 2°40.934 14.2932 4.089434 33.61172 -3.020363
2011-05-19 08:45:16 51°10.974 2°40.907 14.2944 4.089434 33.613175 -3.020363
2011-05-19 08:45:22 51°10.962 2°40.874 14.293 4.089434 33.613175 -3.020363
2011-05-19 08:45:27 51°10.951 2°40.848 14.295 4.08902 33.610097 -3.020363
2011-05-19 08:45:32 51°10.941 2°40.821 14.2892 4.089538 33.61558 -3.020363
2011-05-19 08:45:37 51°10.93 2°40.795 14.2894 4.089331 33.614405 -3.020363
2011-05-19 08:45:42 51°10.92 2°40.768 14.2904 4.089745 33.619665 -3.020363
2011-05-19 08:45:47 51°10.909 2°40.742 14.2913 4.089331 33.616587 -3.020363
2011-05-19 08:45:51 51°10.901 2°40.72 14.2926 4.089331 33.616587 -3.020363
2011-05-19 08:45:56 51°10.89 2°40.694 14.2932 4.089538 33.61849 -3.020363
2011-05-19 08:46:01 51°10.88 2°40.667 14.2964 4.089435 33.618266 -3.020363
2011-05-19 08:46:07 51°10.869 2°40.633 14.3028 4.089435 33.619721 -3.020363
2011-05-19 08:46:11 51°10.861 2°40.611 14.3016 4.089435 33.620449 -3.020363
2011-05-19 08:46:16 51°10.853 2°40.583 14.3008 4.089435 33.619721 -3.020363
2011-05-19 08:46:21 51°10.844 2°40.554 14.3028 4.089435 33.619721 -3.020363
2011-05-19 08:46:27 51°10.834 2°40.52 14.3033 4.089849 33.624254 -3.020363
2011-05-19 08:46:31 51°10.828 2°40.497 14.306 4.089849 33.623527 -3.020363
2011-05-19 08:46:36 51°10.82 2°40.468 14.3051 4.089953 33.623023 -3.020363
2011-05-19 08:46:42 51°10.81 2°40.433 14.3094 4.089953 33.62084 -3.020363
2011-05-19 08:46:47 51°10.803 2°40.403 14.3096 4.090264 33.622239 -3.020363
2011-05-19 08:46:51 51°10.796 2°40.38 14.3156 4.090264 33.622239 -3.020363
2011-05-19 08:46:57 51°10.787 2°40.345 14.3207 4.090367 33.621735 -3.020363
2011-05-19 08:47:02 51°10.779 2°40.316 14.3243 4.090367 33.621008 -3.020363
2011-05-19 08:47:06 51°10.773 2°40.292 14.3281 4.090471 33.620504 -3.020363
2011-05-19 08:47:11 51°10.764 2°40.263 14.3306 4.090575 33.62 -3.020363
2011-05-19 08:47:16 51°10.756 2°40.234 14.3343 4.090575 33.617819 -3.020363
2011-05-19 08:47:22 51°10.746 2°40.199 14.3375 4.090575 33.617819 -3.020363
2011-05-19 08:47:27 51°10.737 2°40.17 14.3404 4.090367 33.614462 -3.020363
2011-05-19 08:47:31 51°10.73 2°40.148 14.343 4.090471 33.611778 -3.020363
2011-05-19 08:47:36 51°10.721 2°40.119 14.3446 4.090056 33.604341 -3.020363
2011-05-19 08:47:42 51°10.71 2°40.085 14.3469 4.090471 33.60451 -3.020363
2011-05-19 08:47:47 51°10.7 2°40.056 14.3487 4.090263 33.599703 -3.020363
2011-05-19 08:47:51 51°10.693 2°40.034 14.3502 4.090263 33.599703 -3.020363
2011-05-19 08:47:55 51°10.685 2°40.011 14.3524 4.090263 33.596071 -3.020363
2011-05-19 08:48:01 51°10.673 2°39.977 14.3512 4.09016 33.592216 -3.020363
2011-05-19 08:48:07 51°10.662 2°39.943 14.3557 4.090574 33.593113 -3.020363
2011-05-19 08:48:11 51°10.655 2°39.92 14.3536 4.090678 33.591885 -3.020363
2011-05-19 08:48:16 51°10.646 2°39.891 14.3537 4.090885 33.590882 -3.020363
2011-05-19 08:48:21 51°10.637 2°39.863 14.3542 4.090885 33.590882 -3.020363
2011-05-19 08:48:27 51°10.626 2°39.828 14.354 4.090781 33.58848 -3.020363
2011-05-19 08:48:31 51°10.619 2°39.805 14.353 4.090885 33.586527 -3.020363
2011-05-19 08:48:36 51°10.61 2°39.776 14.3515 4.090781 33.584126 -3.020363
2011-05-19 08:48:42 51°10.6 2°39.74 14.3536 4.091196 33.586475 -3.020363
2011-05-19 08:48:47 51°10.592 2°39.711 14.3526 4.0913 33.586699 -3.020363
2011-05-19 08:48:51 51°10.585 2°39.687 14.3515 4.0913 33.586699 -3.020363
2011-05-19 08:48:56 51°10.577 2°39.657 14.352 4.0913 33.585974 -3.020363
2011-05-19 08:49:01 51°10.569 2°39.628 14.3563 4.091403 33.586924 -3.020363
2011-05-19 08:49:06 51°10.562 2°39.598 14.3531 4.091403 33.586924 -3.020363
2011-05-19 08:49:11 51°10.553 2°39.569 14.3547 4.09161 33.588824 -3.020363
2011-05-19 08:49:16 51°10.545 2°39.539 14.3535 4.09161 33.588824 -3.020363
2011-05-19 08:49:22 51°10.535 2°39.504 14.3541 4.09161 33.588824 -3.020363
2011-05-19 08:49:27 51°10.527 2°39.474 14.3576 4.09161 33.588824 -3.020363
2011-05-19 08:49:31 51°10.52 2°39.451 14.355 4.09161 33.588824 -3.020363
2011-05-19 08:49:36 51°10.511 2°39.422 14.3543 4.09161 33.588098 -3.020363
2011-05-19 08:49:42 51°10.501 2°39.387 14.3521 4.091714 33.589048 -3.020363
2011-05-19 08:49:47 51°10.491 2°39.358 14.3554 4.091714 33.588322 -3.020363
2011-05-19 08:49:52 51°10.482 2°39.33 14.3518 4.091714 33.588322 -3.020363
2011-05-19 08:49:56 51°10.474 2°39.306 14.3525 4.091507 33.587148 -3.020363
2011-05-19 08:50:02 51°10.463 2°39.273 14.3518 4.091507 33.586422 -3.020363
2011-05-19 08:50:07 51°10.453 2°39.244 14.3509 4.091818 33.588547 -3.020363
2011-05-19 08:50:12 51°10.443 2°39.216 14.3513 4.091299 33.584523 -3.020363
2011-05-19 08:50:16 51°10.436 2°39.193 14.3527 4.091818 33.589998 -3.020363
2011-05-19 08:50:22 51°10.425 2°39.158 14.3524 4.091818 33.589998 -3.020363
2011-05-19 08:50:27 51°10.416 2°39.129 14.3552 4.091921 33.590948 -3.020363
2011-05-19 08:50:32 51°10.407 2°39.1 14.3498 4.091921 33.591673 -3.020363
2011-05-19 08:50:36 51°10.4 2°39.077 14.3491 4.091921 33.592399 -3.020363
2011-05-19 08:50:42 51°10.39 2°39.041 14.352 4.091921 33.592399 -3.020363
2011-05-19 08:50:47 51°10.381 2°39.012 14.3495 4.091921 33.592399 -3.020363
2011-05-19 08:50:52 51°10.373 2°38.982 14.3491 4.091921 33.592399 -3.020363
2011-05-19 08:50:56 51°10.367 2°38.958 14.3464 4.092025 33.592623 -3.020363
2011-05-19 08:51:02 51°10.357 2°38.923 14.3452 4.092129 33.592848 -3.020363
2011-05-19 08:51:07 51°10.349 2°38.893 14.3439 4.092232 33.594523 -3.020363
2011-05-19 08:51:12 51°10.341 2°38.864 14.3453 4.092232 33.595249 -3.020363
2011-05-19 08:51:16 51°10.334 2°38.841 14.3428 4.092232 33.595975 -3.020363
2011-05-19 08:51:22 51°10.324 2°38.805 14.3391 4.092232 33.595975 -3.020363
2011-05-19 08:51:26 51°10.317 2°38.782 14.3393 4.092336 33.597651 -3.020363
2011-05-19 08:51:31 51°10.308 2°38.753 14.337 4.092336 33.598377 -3.020363
2011-05-19 08:51:36 51°10.299 2°38.724 14.3358 4.092336 33.600555 -3.020363
2011-05-19 08:51:42 51°10.288 2°38.69 14.3341 4.092336 33.600555 -3.020363
2011-05-19 08:51:46 51°10.28 2°38.667 14.3331 4.092336 33.601281 -3.020363
2011-05-19 08:51:52 51°10.268 2°38.633 14.3329 4.092336 33.601281 -3.020363
2011-05-19 08:51:56 51°10.26 2°38.611 14.331 4.09244 33.604409 -3.020363
2011-05-19 08:52:02 51°10.249 2°38.577 14.3286 4.09244 33.605861 -3.020363
2011-05-19 08:52:07 51°10.239 2°38.549 14.3279 4.092336 33.606364 -3.020363
2011-05-19 08:52:12 51°10.229 2°38.52 14.3265 4.092336 33.608543 -3.020363
2011-05-19 08:52:16 51°10.222 2°38.497 14.325 4.092233 33.609045 -3.020363
2011-05-19 08:52:21 51°10.212 2°38.469 14.3273 4.092233 33.609045 -3.020363
2011-05-19 08:52:26 51°10.203 2°38.44 14.3272 4.092336 33.610722 -3.020363
2011-05-19 08:52:32 51°10.192 2°38.405 14.3257 4.092336 33.611448 -3.020363
2011-05-19 08:52:36 51°10.185 2°38.382 14.3255 4.092336 33.613628 -3.020363
2011-05-19 08:52:41 51°10.176 2°38.353 14.3229 4.092336 33.615081 -3.020363
2011-05-19 08:52:47 51°10.165 2°38.318 14.3248 4.092336 33.616535 -3.020363
2011-05-19 08:52:52 51°10.157 2°38.289 14.3173 4.092336 33.616535 -3.020363
2011-05-19 08:52:56 51°10.15 2°38.265 14.3176 4.092336 33.617262 -3.020363
2011-05-19 08:53:01 51°10.142 2°38.235 14.3165 4.092233 33.616311 -3.020363
2011-05-19 08:53:07 51°10.132 2°38.199 14.3168 4.092336 33.617988 -3.020363
2011-05-19 08:53:12 51°10.124 2°38.17 14.3147 4.09244 33.619666 -3.020363
2011-05-19 08:53:16 51°10.118 2°38.146 14.3141 4.092336 33.618715 -3.020363
2011-05-19 08:53:20 51°10.111 2°38.122 14.3117 4.092336 33.618715 -3.020363
2011-05-19 08:53:26 51°10.101 2°38.087 14.3094 4.09244 33.62112 -3.020363
2011-05-19 08:53:31 51°10.093 2°38.057 14.3102 4.09244 33.622574 -3.020363
2011-05-19 08:53:36 51°10.084 2°38.028 14.311 4.092336 33.623077 -3.020363
2011-05-19 08:53:42 51°10.074 2°37.992 14.3082 4.092336 33.624531 -3.020363
2011-05-19 08:53:47 51°10.065 2°37.963 14.3098 4.092337 33.625258 -3.020363
2011-05-19 08:53:52 51°10.055 2°37.934 14.3069 4.092337 33.625258 -3.020363
2011-05-19 08:53:57 51°10.046 2°37.905 14.3056 4.092337 33.626713 -3.020363
2011-05-19 08:54:02 51°10.037 2°37.877 14.3025 4.092337 33.628895 -3.020363
2011-05-19 08:54:06 51°10.029 2°37.854 14.3049 4.092337 33.629622 -3.020363
2011-05-19 08:54:12 51°10.018 2°37.819 14.2999 4.092337 33.629622 -3.020363
2011-05-19 08:54:17 51°10.008 2°37.791 14.2989 4.092337 33.630349 -3.020363
2011-05-19 08:54:22 51°9.998 2°37.762 14.299 4.092337 33.630349 -3.020363
2011-05-19 08:54:26 51°9.991 2°37.739 14.296 4.09244 33.632755 -3.020363
2011-05-19 08:54:32 51°9.98 2°37.704 14.295 4.09244 33.634938 -3.020363
2011-05-19 08:54:37 51°9.97 2°37.675 14.2936 4.09244 33.635666 -3.020363
2011-05-19 08:54:41 51°9.963 2°37.652 14.2948 4.09244 33.637121 -3.020363
2011-05-19 08:54:47 51°9.952 2°37.617 14.2957 4.092544 33.6388 -3.020363
2011-05-19 08:54:52 51°9.943 2°37.587 14.2954 4.092544 33.6388 -3.020363
2011-05-19 08:54:57 51°9.934 2°37.558 14.2915 4.09244 33.639304 -3.020363
2011-05-19 08:55:01 51°9.928 2°37.534 14.2919 4.09244 33.64076 -3.020363
2011-05-19 08:55:06 51°9.919 2°37.504 14.292 4.09244 33.642216 -3.020363
2011-05-19 08:55:12 51°9.91 2°37.468 14.2887 4.09244 33.642944 -3.020363
2011-05-19 08:55:17 51°9.901 2°37.439 14.2905 4.09244 33.643672 -3.020363
2011-05-19 08:55:21 51°9.895 2°37.415 14.2912 4.09244 33.643672 -3.020363
2011-05-19 08:55:26 51°9.887 2°37.385 14.292 4.092544 33.644623 -3.020363
2011-05-19 08:55:32 51°9.877 2°37.349 14.2898 4.092544 33.646079 -3.020363
2011-05-19 08:55:37 51°9.869 2°37.319 14.29 4.092544 33.646807 -3.020363
2011-05-19 08:55:41 51°9.862 2°37.295 14.2887 4.092544 33.647535 -3.020363
2011-05-19 08:55:46 51°9.854 2°37.265 14.2888 4.092544 33.648264 -3.020363
2011-05-19 08:55:52 51°9.844 2°37.23 14.2879 4.092544 33.648264 -3.020363
2011-05-19 08:55:57 51°9.835 2°37.2 14.2857 4.092544 33.648992 -3.020363
2011-05-19 08:56:01 51°9.828 2°37.177 14.2827 4.092544 33.648264 -3.020363
2011-05-19 08:56:06 51°9.819 2°37.148 14.2815 4.092648 33.649943 -3.020363
2011-05-19 08:56:11 51°9.809 2°37.119 14.2816 4.092648 33.650672 -3.020363
2011-05-19 08:56:18 51°9.796 2°37.079 14.2798 4.092751 33.652351 -3.020363
2011-05-19 08:56:21 51°9.79 2°37.061 14.2838 4.092751 33.652351 -3.020363
2011-05-19 08:56:25 51°9.782 2°37.038 14.2765 4.092751 33.65308 -3.020363
2011-05-19 08:56:31 51°9.771 2°37.004 14.2768 4.092752 33.654537 -3.020363
2011-05-19 08:56:36 51°9.761 2°36.976 14.276 4.092752 33.655993 -3.020363
2011-05-19 08:56:41 51°9.751 2°36.947 14.2775 4.092752 33.658179 -3.020363
2011-05-19 08:56:46 51°9.741 2°36.918 14.2772 4.092855 33.65986 -3.020363
2011-05-19 08:56:51 51°9.732 2°36.89 14.2768 4.092855 33.65986 -3.020363
2011-05-19 08:56:56 51°9.723 2°36.862 14.2753 4.092855 33.660588 -3.020363
2011-05-19 08:57:01 51°9.714 2°36.835 14.2762 4.092855 33.661317 -3.020363
2011-05-19 08:57:05 51°9.708 2°36.814 14.2805 4.092855 33.662775 -3.020363
2011-05-19 08:57:11 51°9.699 2°36.786 14.2763 4.092959 33.664455 -3.020363
2011-05-19 08:57:16 51°9.692 2°36.763 14.2742 4.092959 33.665184 -3.020363
2011-05-19 08:57:22 51°9.684 2°36.737 14.2738 4.092959 33.665184 -3.020363
2011-05-19 08:57:26 51°9.68 2°36.721 14.2736 4.092959 33.665184 -3.020363
2011-05-19 08:57:31 51°9.674 2°36.701 14.2744 4.093063 33.666136 -3.020363
2011-05-19 08:57:37 51°9.668 2°36.679 14.2732 4.093063 33.666136 -3.020363
2011-05-19 08:57:41 51°9.663 2°36.664 14.2735 4.093063 33.666136 -3.020363
2011-05-19 08:57:45 51°9.66 2°36.65 14.2703 4.092959 33.665913 -3.020363
2011-05-19 08:57:51 51°9.654 2°36.63 14.2685 4.092959 33.665913 -3.020363
2011-05-19 08:57:57 51°9.649 2°36.611 14.2677 4.092959 33.666642 -3.020363
2011-05-19 08:58:01 51°9.646 2°36.599 14.2713 4.092752 33.665467 -3.020363
2011-05-19 08:58:05 51°9.642 2°36.588 14.2664 4.092855 33.667148 -3.020363
2011-05-19 08:58:11 51°9.637 2°36.572 14.2671 4.092855 33.667877 -3.020363
2011-05-19 08:58:16 51°9.633 2°36.559 14.2623 4.092855 33.667877 -3.020363
2011-05-19 08:58:22 51°9.627 2°36.545 14.2615 4.092855 33.667877 -3.020363
2011-05-19 08:58:27 51°9.623 2°36.534 14.2677 4.092855 33.670064 -3.020363
2011-05-19 08:58:32 51°9.618 2°36.524 14.2643 4.092855 33.670794 -3.020363
2011-05-19 08:58:37 51°9.614 2°36.514 14.2632 4.092752 33.670571 -3.020363
2011-05-19 08:58:42 51°9.609 2°36.504 14.2605 4.092752 33.6713 -3.020363
2011-05-19 08:58:46 51°9.605 2°36.498 14.2624 4.092752 33.672758 -3.020363
2011-05-19 08:58:52 51°9.599 2°36.488 14.259 4.092752 33.672758 -3.020363
2011-05-19 08:58:57 51°9.594 2°36.48 14.2614 4.092648 33.672536 -3.020363
2011-05-19 08:59:02 51°9.589 2°36.474 14.2579 4.09213 33.668504 -3.020363
2011-05-19 08:59:06 51°9.585 2°36.468 14.2612 4.09213 33.668504 -3.020363
2011-05-19 08:59:12 51°9.579 2°36.461 14.2634 4.092234 33.670915 -3.020363
2011-05-19 08:59:17 51°9.574 2°36.456 14.2624 4.09213 33.670692 -3.020363
2011-05-19 08:59:22 51°9.569 2°36.45 14.2644 4.09213 33.670692 -3.020363
2011-05-19 08:59:26 51°9.565 2°36.447 14.2636 4.092026 33.670469 -3.020363
2011-05-19 08:59:32 51°9.56 2°36.441 14.2633 4.091923 33.670976 -3.020363
2011-05-19 08:59:37 51°9.555 2°36.437 14.2649 4.091923 33.671705 -3.020363
2011-05-19 08:59:42 51°9.552 2°36.432 14.2679 4.092026 33.671928 -3.020363
2011-05-19 08:59:46 51°9.549 2°36.43 14.2661 4.092026 33.671928 -3.020363
2011-05-19 08:59:52 51°9.545 2°36.425 14.2707 4.092026 33.671928 -3.020363
2011-05-19 08:59:57 51°9.542 2°36.422 14.269 4.092234 33.672374 -3.020363
2011-05-19 09:00:02 51°9.54 2°36.418 14.2693 4.092337 33.672596 -3.020363
2011-05-19 09:00:06 51°9.538 2°36.415 14.2693 4.092234 33.671644 -3.020363
2011-05-19 09:00:12 51°9.536 2°36.411 14.2689 4.092441 33.672819 -3.020363
2011-05-19 09:00:17 51°9.535 2°36.408 14.2665 4.092545 33.672313 -3.020363
2011-05-19 09:00:22 51°9.534 2°36.405 14.2696 4.092545 33.672313 -3.020363
2011-05-19 09:00:26 51°9.533 2°36.402 14.2684 4.092648 33.672536 -3.020363
2011-05-19 09:00:31 51°9.533 2°36.398 14.2678 4.092855 33.672981 -3.020363
2011-05-19 09:00:37 51°9.532 2°36.394 14.2668 4.09327 33.67679 -3.020363
2011-05-19 09:00:42 51°9.531 2°36.391 14.2684 4.093477 33.678694 -3.020363
2011-05-19 09:00:46 51°9.531 2°36.388 14.2675 4.093477 33.678694 -3.020363
2011-05-19 09:00:52 51°9.53 2°36.383 14.2685 4.093477 33.678694 -3.020363
2011-05-19 09:00:56 51°9.53 2°36.38 14.2667 4.093477 33.678694 -3.020363
2011-05-19 09:01:02 51°9.529 2°36.376 14.2699 4.093374 33.677742 -3.020363
2011-05-19 09:01:07 51°9.529 2°36.373 14.2677 4.093374 33.678471 -3.020363
2011-05-19 09:01:12 51°9.528 2°36.369 14.2576 4.093374 33.678471 -3.020363
2011-05-19 09:01:17 51°9.527 2°36.366 14.2549 4.09327 33.677519 -3.020363
2011-05-19 09:01:22 51°9.527 2°36.362 14.249 4.09327 33.677519 -3.020363
2011-05-19 09:01:26 51°9.526 2°36.359 14.2451 4.09327 33.677519 -3.020363
2011-05-19 09:01:31 51°9.525 2°36.356 14.2446 4.09327 33.677519 -3.020363
2011-05-19 09:01:36 51°9.525 2°36.353 14.2448 4.092959 33.673204 -3.020363
2011-05-19 09:01:41 51°9.524 2°36.349 14.2442 4.093581 33.675999 -3.020363
2011-05-19 09:01:46 51°9.523 2°36.346 14.245 4.093477 33.674318 -3.020363
2011-05-19 09:01:51 51°9.523 2°36.343 14.2466 4.093477 33.674318 -3.020363
2011-05-19 09:01:56 51°9.522 2°36.34 14.2476 4.093374 33.675554 -3.020363
2011-05-19 09:02:01 51°9.521 2°36.336 14.2526 4.093477 33.678694 -3.020363
2011-05-19 09:02:06 51°9.521 2°36.333 14.2478 4.092959 33.67758 -3.020363
2011-05-19 09:02:11 51°9.52 2°36.33 14.249 4.092648 33.677642 -3.020363
2011-05-19 09:02:16 51°9.519 2°36.326 14.2516 4.092234 33.674562 -3.020363
2011-05-19 09:02:21 51°9.518 2°36.323 14.2483 4.092234 33.674562 -3.020363
2011-05-19 09:02:26 51°9.517 2°36.32 14.2575 4.091819 33.672212 -3.020363
2011-05-19 09:02:31 51°9.516 2°36.317 14.2545 4.091404 33.667673 -3.020363
2011-05-19 09:02:36 51°9.516 2°36.314 14.2629 4.090886 33.661453 -3.020363
2011-05-19 09:02:41 51°9.515 2°36.31 14.2556 4.090472 33.657644 -3.020363
2011-05-19 09:02:46 51°9.514 2°36.307 14.2559 4.089539 33.649075 -3.020363
2011-05-19 09:02:50 51°9.513 2°36.305 14.2606 4.089539 33.649075 -3.020363
2011-05-19 09:02:56 51°9.512 2°36.301 14.2625 4.089953 33.652883 -3.020363
2011-05-19 09:03:01 51°9.511 2°36.298 14.2582 4.08985 33.650473 -3.020363
2011-05-19 09:03:06 51°9.51 2°36.295 14.2565 4.089642 33.646383 -3.020363
2011-05-19 09:03:11 51°9.509 2°36.291 14.2556 4.089539 33.643973 -3.020363
2011-05-19 09:03:16 51°9.509 2°36.288 14.2553 4.089435 33.641564 -3.020363
2011-05-19 09:03:22 51°9.507 2°36.284 14.2561 4.089435 33.641564 -3.020363
2011-05-19 09:03:26 51°9.507 2°36.282 14.2566 4.089746 33.64442 -3.020363
2011-05-19 09:03:31 51°9.506 2°36.279 14.2559 4.088502 33.632268 -3.020363
2011-05-19 09:03:36 51°9.505 2°36.275 14.2579 4.089228 33.637474 -3.020363
2011-05-19 09:03:41 51°9.504 2°36.272 14.254 4.089642 33.64201 -3.020363
2011-05-19 09:03:46 51°9.503 2°36.269 14.2546 4.089953 33.645595 -3.020363
2011-05-19 09:03:51 51°9.502 2°36.266 14.2581 4.089953 33.645595 -3.020363
2011-05-19 09:03:56 51°9.501 2°36.263 14.255 4.090057 33.647276 -3.020363
2011-05-19 09:04:01 51°9.5 2°36.26 14.255 4.090057 33.648004 -3.020363
2011-05-19 09:04:06 51°9.499 2°36.256 14.2524 4.090264 33.650637 -3.020363
2011-05-19 09:04:11 51°9.498 2°36.253 14.256 4.090368 33.651589 -3.020363
2011-05-19 09:04:16 51°9.497 2°36.25 14.2545 4.090264 33.650637 -3.020363
2011-05-19 09:04:21 51°9.496 2°36.246 14.2568 4.090264 33.650637 -3.020363
2011-05-19 09:04:26 51°9.495 2°36.243 14.2596 4.090368 33.65086 -3.020363
2011-05-19 09:04:31 51°9.494 2°36.24 14.2549 4.090264 33.649908 -3.020363
2011-05-19 09:04:36 51°9.493 2°36.237 14.2558 4.090471 33.651813 -3.020363
2011-05-19 09:04:41 51°9.492 2°36.233 14.2514 4.090679 33.654446 -3.020363
2011-05-19 09:04:46 51°9.491 2°36.23 14.2496 4.090575 33.653493 -3.020363
2011-05-19 09:04:51 51°9.49 2°36.227 14.2532 4.090575 33.653493 -3.020363
2011-05-19 09:04:56 51°9.489 2°36.223 14.2566 4.090782 33.655398 -3.020363
2011-05-19 09:05:02 51°9.488 2°36.22 14.2535 4.090679 33.653717 -3.020363
2011-05-19 09:05:06 51°9.487 2°36.217 14.2592 4.090471 33.651084 -3.020363
2011-05-19 09:05:11 51°9.486 2°36.214 14.256 4.090368 33.650132 -3.020363
2011-05-19 09:05:17 51°9.485 2°36.21 14.2519 4.090679 33.653717 -3.020363
2011-05-19 09:05:22 51°9.483 2°36.207 14.2525 4.090679 33.653717 -3.020363
2011-05-19 09:05:26 51°9.483 2°36.204 14.248 4.090886 33.655621 -3.020363
2011-05-19 09:05:30 51°9.482 2°36.201 14.2495 4.09099 33.656573 -3.020363
2011-05-19 09:05:36 51°9.481 2°36.197 14.2559 4.09099 33.656573 -3.020363
2011-05-19 09:05:42 51°9.48 2°36.193 14.2545 4.09099 33.656573 -3.020363
2011-05-19 09:05:46 51°9.479 2°36.191 14.2616 4.09099 33.656573 -3.020363
2011-05-19 09:05:51 51°9.478 2°36.187 14.2528 4.09099 33.656573 -3.020363
2011-05-19 09:05:56 51°9.477 2°36.184 14.2532 4.091093 33.658254 -3.020363
2011-05-19 09:06:01 51°9.476 2°36.181 14.2511 4.091093 33.658983 -3.020363
2011-05-19 09:06:06 51°9.474 2°36.177 14.2544 4.091093 33.659712 -3.020363
2011-05-19 09:06:11 51°9.473 2°36.175 14.2502 4.090782 33.656127 -3.020363
2011-05-19 09:06:16 51°9.471 2°36.173 14.2574 4.090886 33.655621 -3.020363
2011-05-19 09:06:21 51°9.47 2°36.17 14.2581 4.090886 33.655621 -3.020363
2011-05-19 09:06:26 51°9.469 2°36.166 14.2552 4.091301 33.6587 -3.020363
2011-05-19 09:06:31 51°9.468 2°36.163 14.2594 4.091301 33.659429 -3.020363
2011-05-19 09:06:36 51°9.467 2°36.16 14.2672 4.091404 33.66111 -3.020363
2011-05-19 09:06:41 51°9.466 2°36.156 14.258 4.091508 33.662062 -3.020363
2011-05-19 09:06:46 51°9.465 2°36.153 14.2562 4.091508 33.662791 -3.020363
2011-05-19 09:06:51 51°9.464 2°36.15 14.2502 4.091508 33.662791 -3.020363
2011-05-19 09:06:56 51°9.462 2°36.147 14.2502 4.091301 33.660158 -3.020363
2011-05-19 09:07:01 51°9.461 2°36.143 14.2584 4.09099 33.655844 -3.020363
2011-05-19 09:07:06 51°9.46 2°36.14 14.2544 4.091508 33.659875 -3.020363
2011-05-19 09:07:10 51°9.459 2°36.138 14.2565 4.09099 33.654386 -3.020363
2011-05-19 09:07:16 51°9.458 2°36.134 14.2682 4.091508 33.659146 -3.020363
2011-05-19 09:07:21 51°9.457 2°36.13 14.2646 4.091508 33.659146 -3.020363
2011-05-19 09:07:26 51°9.456 2°36.127 14.2698 4.091819 33.66346 -3.020363
2011-05-19 09:07:31 51°9.454 2°36.124 14.2655 4.091819 33.664919 -3.020363
2011-05-19 09:07:36 51°9.453 2°36.121 14.2634 4.091612 33.663743 -3.020363
2011-05-19 09:07:42 51°9.452 2°36.117 14.262 4.091404 33.66111 -3.020363
2011-05-19 09:07:46 51°9.451 2°36.114 14.262 4.091612 33.662285 -3.020363
2011-05-19 09:07:50 51°9.45 2°36.112 14.2657 4.091612 33.662285 -3.020363
2011-05-19 09:07:56 51°9.448 2°36.108 14.2637 4.091404 33.656736 -3.020363
2011-05-19 09:08:02 51°9.447 2°36.104 14.2653 4.091922 33.660038 -3.020363
2011-05-19 09:08:06 51°9.446 2°36.102 14.254 4.091922 33.658581 -3.020363
2011-05-19 09:08:11 51°9.445 2°36.098 14.2533 4.092441 33.662611 -3.020363
2011-05-19 09:08:16 51°9.444 2°36.095 14.257 4.092233 33.660708 -3.020363
2011-05-19 09:08:21 51°9.442 2°36.092 14.2578 4.092233 33.660708 -3.020363
2011-05-19 09:08:26 51°9.441 2°36.089 14.2585 4.092026 33.658075 -3.020363
2011-05-19 09:08:31 51°9.44 2°36.086 14.2583 4.092441 33.661154 -3.020363
2011-05-19 09:08:36 51°9.438 2°36.082 14.2613 4.092544 33.662834 -3.020363
2011-05-19 09:08:41 51°9.437 2°36.08 14.2568 4.092337 33.662388 -3.020363
2011-05-19 09:08:46 51°9.436 2°36.076 14.2617 4.092752 33.668383 -3.020363
2011-05-19 09:08:51 51°9.435 2°36.073 14.2566 4.092752 33.668383 -3.020363
2011-05-19 09:08:56 51°9.433 2°36.07 14.2624 4.09213 33.6634 -3.020363
2011-05-19 09:09:01 51°9.432 2°36.067 14.2712 4.092441 33.666256 -3.020363
2011-05-19 09:09:06 51°9.431 2°36.064 14.2668 4.092337 33.665304 -3.020363
2011-05-19 09:09:11 51°9.429 2°36.061 14.2791 4.09213 33.662671 -3.020363
2011-05-19 09:09:16 51°9.428 2°36.057 14.2786 4.092233 33.663623 -3.020363
2011-05-19 09:09:22 51°9.427 2°36.054 14.2735 4.092233 33.663623 -3.020363
2011-05-19 09:09:26 51°9.426 2°36.051 14.2735 4.092544 33.666479 -3.020363
2011-05-19 09:09:31 51°9.424 2°36.048 14.2719 4.092752 33.667654 -3.020363
2011-05-19 09:09:37 51°9.423 2°36.044 14.2666 4.092233 33.661436 -3.020363
2011-05-19 09:09:42 51°9.422 2°36.04 14.2639 4.092855 33.664232 -3.020363
2011-05-19 09:09:46 51°9.421 2°36.038 14.2692 4.092752 33.660365 -3.020363
2011-05-19 09:09:50 51°9.42 2°36.035 14.2598 4.092752 33.660365 -3.020363
2011-05-19 09:09:56 51°9.418 2°36.031 14.2555 4.092752 33.658179 -3.020363
2011-05-19 09:10:02 51°9.417 2°36.027 14.2502 4.093788 33.666239 -3.020363
2011-05-19 09:10:06 51°9.416 2°36.025 14.2545 4.093892 33.667191 -3.020363
2011-05-19 09:10:11 51°9.414 2°36.022 14.252 4.093788 33.666968 -3.020363
2011-05-19 09:10:16 51°9.413 2°36.018 14.2593 4.093892 33.669377 -3.020363
2011-05-19 09:10:21 51°9.412 2°36.015 14.2552 4.093892 33.669377 -3.020363
2011-05-19 09:10:26 51°9.41 2°36.012 14.2607 4.093788 33.670612 -3.020363
2011-05-19 09:10:30 51°9.409 2°36.009 14.2619 4.093581 33.670895 -3.020363
2011-05-19 09:10:36 51°9.408 2°36.005 14.27 4.093581 33.673812 -3.020363
2011-05-19 09:10:41 51°9.407 2°36.002 14.2749 4.092337 33.666033 -3.020363
2011-05-19 09:10:46 51°9.405 2°35.998 14.2709 4.092648 33.669619 -3.020363
2011-05-19 09:10:51 51°9.404 2°35.995 14.2732 4.092648 33.669619 -3.020363
2011-05-19 09:10:56 51°9.402 2°35.993 14.2727 4.092959 33.672475 -3.020363
2011-05-19 09:11:01 51°9.4 2°35.99 14.2763 4.092959 33.672475 -3.020363
2011-05-19 09:11:06 51°9.399 2°35.987 14.2666 4.092855 33.670064 -3.020363
2011-05-19 09:11:11 51°9.397 2°35.984 14.2664 4.092648 33.665244 -3.020363
2011-05-19 09:11:16 51°9.396 2°35.98 14.2628 4.093063 33.665407 -3.020363
2011-05-19 09:11:21 51°9.395 2°35.976 14.2708 4.093063 33.665407 -3.020363
2011-05-19 09:11:26 51°9.393 2°35.973 14.2684 4.093063 33.662492 -3.020363
2011-05-19 09:11:31 51°9.392 2°35.969 14.2677 4.093892 33.668648 -3.020363
2011-05-19 09:11:36 51°9.391 2°35.966 14.2659 4.093788 33.666239 -3.020363
2011-05-19 09:11:42 51°9.389 2°35.962 14.262 4.090368 33.634835 -3.020363
2011-05-19 09:11:46 51°9.388 2°35.959 14.2571 4.093581 33.667251 -3.020363
2011-05-19 09:11:51 51°9.387 2°35.955 14.2526 4.093581 33.667251 -3.020363
2011-05-19 09:11:56 51°9.386 2°35.952 14.2504 4.093684 33.668931 -3.020363
2011-05-19 09:12:02 51°9.384 2°35.948 14.2486 4.093166 33.664901 -3.020363
2011-05-19 09:12:06 51°9.383 2°35.945 14.2498 4.093684 33.66966 -3.020363
2011-05-19 09:12:10 51°9.382 2°35.943 14.252 4.092855 33.661317 -3.020363
2011-05-19 09:12:16 51°9.38 2°35.939 14.253 4.093581 33.669437 -3.020363
2011-05-19 09:12:22 51°9.379 2°35.935 14.2519 4.093581 33.669437 -3.020363
2011-05-19 09:12:26 51°9.378 2°35.932 14.2566 4.09327 33.668769 -3.020363
2011-05-19 09:12:31 51°9.376 2°35.929 14.2561 4.092648 33.665244 -3.020363
2011-05-19 09:12:36 51°9.375 2°35.925 14.254 4.09213 33.662671 -3.020363
2011-05-19 09:12:41 51°9.373 2°35.922 14.2541 4.092544 33.668667 -3.020363
2011-05-19 09:12:46 51°9.372 2°35.919 14.2536 4.092648 33.671077 -3.020363
2011-05-19 09:12:50 51°9.371 2°35.916 14.2581 4.092648 33.671077 -3.020363
2011-05-19 09:12:56 51°9.37 2°35.912 14.2556 4.092337 33.66895 -3.020363
2011-05-19 09:13:01 51°9.368 2°35.909 14.2575 4.092544 33.670125 -3.020363
2011-05-19 09:13:06 51°9.367 2°35.905 14.2517 4.092959 33.673204 -3.020363
2011-05-19 09:13:11 51°9.366 2°35.902 14.2532 4.092648 33.669619 -3.020363
2011-05-19 09:13:16 51°9.364 2°35.899 14.2539 4.092233 33.66581 -3.020363
2011-05-19 09:13:21 51°9.363 2°35.896 14.2571 4.092233 33.66581 -3.020363
2011-05-19 09:13:26 51°9.361 2°35.893 14.2549 4.092959 33.671746 -3.020363
2011-05-19 09:13:31 51°9.36 2°35.889 14.2569 4.092752 33.669841 -3.020363
2011-05-19 09:13:36 51°9.359 2°35.886 14.26 4.091923 33.662225 -3.020363
2011-05-19 09:13:41 51°9.357 2°35.883 14.2643 4.092544 33.668667 -3.020363
2011-05-19 09:13:46 51°9.356 2°35.88 14.2664 4.092752 33.670571 -3.020363
2011-05-19 09:13:51 51°9.354 2°35.876 14.2725 4.092752 33.670571 -3.020363
2011-05-19 09:13:56 51°9.353 2°35.873 14.2668 4.092855 33.671523 -3.020363
2011-05-19 09:14:02 51°9.351 2°35.869 14.2588 4.092959 33.671746 -3.020363
2011-05-19 09:14:06 51°9.35 2°35.867 14.256 4.09213 33.664129 -3.020363
2011-05-19 09:14:11 51°9.349 2°35.863 14.2488 4.091819 33.659815 -3.020363